Time,TemperatureF,DewpointF,PressureIn,WindDirection,WindDirectionDegrees,WindSpeedMPH,WindSpeedGustMPH,Humidity,HourlyPrecipIn,Conditions,Clouds,dailyrainin,SoftwareType,DateUTC
2013-07-09 09:42:00,69.2,69.2,30.11,ESE,120,0.0,0.0,100,-99.99,,,-99.99,VWS V14.01,2013-07-09 13:42:00,
2013-07-09 09:43:00,69.2,69.2,30.11,ESE,120,0.0,0.0,100,-99.99,,,-99.99,VWS V14.01,2013-07-09 13:43:00,
2013-07-09 09:44:00,69.3,69.3,30.11,ESE,120,0.0,0.0,100,-99.99,,,-99.99,VWS V14.01,2013-07-09 13:44:00,
2013-07-09 09:45:00,69.3,69.3,30.12,ESE,120,0.0,0.0,100,-99.99,,,-99.99,VWS V14.01,2013-07-09 13:45:00,
2013-07-09 09:46:00,69.4,69.4,30.11,ESE,120,0.0,0.0,100,-99.99,,,-99.99,VWS V14.01,2013-07-09 13:46:00,
2013-07-09 09:47:00,69.4,69.4,30.12,ESE,120,0.0,0.0,100,-99.99,,,-99.99,VWS V14.01,2013-07-09 13:47:00,
2013-07-09 09:48:00,69.5,69.5,30.12,ESE,120,0.0,0.0,100,-99.99,,,-99.99,VWS V14.01,2013-07-09 13:48:00,
2013-07-09 09:49:00,69.5,69.5,30.12,ESE,120,0.0,0.0,100,-99.99,,,-99.99,VWS V14.01,2013-07-09 13:49:00,
2013-07-09 09:50:00,69.6,69.6,30.12,ESE,120,0.0,0.0,100,-99.99,,,-99.99,VWS V14.01,2013-07-09 13:50:00,
2013-07-09 09:51:00,69.5,69.5,30.12,ESE,120,0.0,0.0,100,-99.99,,,-99.99,VWS V14.01,2013-07-09 13:51:00,
2013-07-09 09:52:00,69.6,69.6,30.12,ESE,120,0.0,0.0,100,-99.99,,,-99.99,VWS V14.01,2013-07-09 13:52:00,
2013-07-09 09:53:00,69.5,69.5,30.12,ESE,120,0.0,0.0,100,-99.99,,,-99.99,VWS V14.01,2013-07-09 13:53:00,
2013-07-09 09:54:00,69.7,69.7,30.12,ESE,120,0.0,0.0,100,-99.99,,,-99.99,VWS V14.01,2013-07-09 13:54:00,
2013-07-09 09:55:00,69.7,69.7,30.12,ESE,120,0.0,0.0,100,-99.99,,,-99.99,VWS V14.01,2013-07-09 13:55:00,
2013-07-09 09:56:00,69.7,69.7,30.12,ESE,120,0.0,0.0,100,-99.99,,,-99.99,VWS V14.01,2013-07-09 13:56:00,
2013-07-09 09:57:00,69.7,69.7,30.12,ESE,120,0.0,0.0,100,-99.99,,,-99.99,VWS V14.01,2013-07-09 13:57:00,
2013-07-09 09:58:00,69.8,69.8,30.12,ESE,120,0.0,0.0,100,-99.99,,,-99.99,VWS V14.01,2013-07-09 13:58:00,
2013-07-09 09:59:00,69.8,69.8,30.12,ESE,120,0.0,0.0,100,-99.99,,,-99.99,VWS V14.01,2013-07-09 13:59:00,
2013-07-09 10:00:00,69.6,69.6,30.12,ESE,120,0.0,0.0,100,-99.99,,,-99.99,VWS V14.01,2013-07-09 14:00:00,
2013-07-09 10:01:00,69.7,69.7,30.12,ESE,120,0.0,0.0,100,-99.99,,,-99.99,VWS V14.01,2013-07-09 14:01:00,
2013-07-09 10:02:00,69.6,69.6,30.12,ESE,120,0.0,0.0,100,-99.99,,,-99.99,VWS V14.01,2013-07-09 14:02:00,
2013-07-09 10:03:00,69.7,69.7,30.13,ESE,120,0.0,0.0,100,-99.99,,,-99.99,VWS V14.01,2013-07-09 14:03:00,
2013-07-09 10:04:00,69.7,69.7,30.12,SE,134,0.0,3.4,100,-99.99,,,-99.99,VWS V14.01,2013-07-09 14:04:00,
2013-07-09 10:05:00,69.6,69.6,30.12,East,79,3.3,4.6,100,-99.99,,,-99.99,VWS V14.01,2013-07-09 14:05:00,
2013-07-09 10:06:00,69.6,69.6,30.12,ESE,111,0.0,4.3,100,-99.99,,,-99.99,VWS V14.01,2013-07-09 14:06:00,
2013-07-09 10:07:00,69.7,69.7,30.12,ESE,111,0.0,0.0,100,-99.99,,,-99.99,VWS V14.01,2013-07-09 14:07:00,
2013-07-09 10:08:00,69.6,69.6,30.13,ESE,111,0.0,0.0,100,-99.99,,,-99.99,VWS V14.01,2013-07-09 14:08:00,
2013-07-09 10:09:00,69.6,69.6,30.12,ESE,111,0.0,0.0,100,-99.99,,,-99.99,VWS V14.01,2013-07-09 14:09:00,
2013-07-09 10:10:00,69.6,69.6,30.12,ESE,111,0.0,0.0,100,-99.99,,,-99.99,VWS V14.01,2013-07-09 14:10:00,
2013-07-09 10:11:00,69.6,69.6,30.12,ESE,111,0.0,0.0,100,-99.99,,,-99.99,VWS V14.01,2013-07-09 14:11:00,
2013-07-09 10:12:00,69.6,69.6,30.12,ESE,111,0.0,0.0,100,-99.99,,,-99.99,VWS V14.01,2013-07-09 14:12:00,
2013-07-09 10:13:00,69.6,69.6,30.13,ESE,111,0.0,0.0,100,-99.99,,,-99.99,VWS V14.01,2013-07-09 14:13:00,
2013-07-09 10:14:00,69.6,69.6,30.12,ESE,111,0.0,0.0,100,-99.99,,,-99.99,VWS V14.01,2013-07-09 14:14:00,
2013-07-09 10:15:00,69.6,69.6,30.12,ESE,111,0.0,0.0,100,-99.99,,,-99.99,VWS V14.01,2013-07-09 14:15:00,
2013-07-09 10:16:00,69.7,69.7,30.12,ESE,111,0.0,0.0,100,-99.99,,,-99.99,VWS V14.01,2013-07-09 14:16:00,
2013-07-09 10:17:00,69.7,69.7,30.12,ESE,111,0.0,0.0,100,-99.99,,,-99.99,VWS V14.01,2013-07-09 14:17:00,
2013-07-09 10:18:00,69.7,69.7,30.12,ESE,111,0.0,0.0,100,-99.99,,,-99.99,VWS V14.01,2013-07-09 14:18:00,
2013-07-09 10:19:00,69.7,69.7,30.12,ESE,111,0.0,0.0,100,-99.99,,,-99.99,VWS V14.01,2013-07-09 14:19:00,
2013-07-09 10:20:00,69.6,69.6,30.12,ESE,111,0.0,0.0,100,-99.99,,,-99.99,VWS V14.01,2013-07-09 14:20:00,
2013-07-09 10:21:00,69.7,69.7,30.12,ESE,111,0.0,0.0,100,-99.99,,,-99.99,VWS V14.01,2013-07-09 14:21:00,
2013-07-09 10:22:00,69.6,69.6,30.12,ESE,111,0.0,0.0,100,-99.99,,,-99.99,VWS V14.01,2013-07-09 14:22:00,
2013-07-09 10:23:00,69.6,69.6,30.12,ESE,111,0.0,0.0,100,-99.99,,,-99.99,VWS V14.01,2013-07-09 14:23:00,
2013-07-09 10:24:00,69.6,69.6,30.12,ESE,111,0.0,0.0,100,-99.99,,,-99.99,VWS V14.01,2013-07-09 14:24:00,
2013-07-09 10:25:00,69.6,69.6,30.12,ESE,111,0.0,0.0,100,-99.99,,,-99.99,VWS V14.01,2013-07-09 14:25:00,
2013-07-09 10:26:00,69.6,69.6,30.12,ESE,111,0.0,0.0,100,-99.99,,,-99.99,VWS V14.01,2013-07-09 14:26:00,
2013-07-09 10:27:00,69.6,69.6,30.12,ESE,111,0.0,0.0,100,-99.99,,,-99.99,VWS V14.01,2013-07-09 14:27:00,
2013-07-09 10:28:00,69.7,69.7,30.12,ESE,111,0.0,0.0,100,-99.99,,,-99.99,VWS V14.01,2013-07-09 14:28:00,
2013-07-09 10:29:00,69.7,69.7,30.12,ESE,111,0.0,0.0,100,-99.99,,,-99.99,VWS V14.01,2013-07-09 14:29:00,
2013-07-09 10:30:00,69.8,69.8,30.12,ESE,111,0.0,0.0,100,-99.99,,,-99.99,VWS V14.01,2013-07-09 14:30:00,
2013-07-09 10:31:00,69.8,69.8,30.12,ESE,111,0.0,0.0,100,-99.99,,,-99.99,VWS V14.01,2013-07-09 14:31:00,
2013-07-09 10:32:00,69.8,69.8,30.12,ESE,111,0.0,0.0,100,-99.99,,,-99.99,VWS V14.01,2013-07-09 14:32:00,
2013-07-09 10:33:00,69.9,69.9,30.12,ESE,111,0.0,0.0,100,-99.99,,,-99.99,VWS V14.01,2013-07-09 14:33:00,
2013-07-09 10:34:00,69.8,69.8,30.12,ESE,111,0.0,0.0,100,-99.99,,,-99.99,VWS V14.01,2013-07-09 14:34:00,
2013-07-09 10:35:00,69.8,69.8,30.12,ESE,111,0.0,0.0,100,-99.99,,,-99.99,VWS V14.01,2013-07-09 14:35:00,
2013-07-09 10:36:00,69.7,69.7,30.12,ESE,111,0.0,0.0,100,-99.99,,,-99.99,VWS V14.01,2013-07-09 14:36:00,
2013-07-09 10:37:00,69.8,69.8,30.12,ESE,111,0.0,0.0,100,-99.99,,,-99.99,VWS V14.01,2013-07-09 14:37:00,
2013-07-09 10:38:00,69.8,69.8,30.11,ESE,111,0.0,0.0,100,-99.99,,,-99.99,VWS V14.01,2013-07-09 14:38:00,
2013-07-09 10:39:00,69.8,69.8,30.11,ESE,111,0.0,0.0,100,-99.99,,,-99.99,VWS V14.01,2013-07-09 14:39:00,
2013-07-09 10:40:00,69.8,69.8,30.12,ESE,111,0.0,0.0,100,-99.99,,,-99.99,VWS V14.01,2013-07-09 14:40:00,
2013-07-09 10:41:00,69.7,69.7,30.12,ESE,111,0.0,0.0,100,-99.99,,,-99.99,VWS V14.01,2013-07-09 14:41:00,
2013-07-09 10:42:00,69.8,69.8,30.11,ESE,111,0.0,0.0,100,-99.99,,,-99.99,VWS V14.01,2013-07-09 14:42:00,
2013-07-09 10:43:00,69.7,69.7,30.11,ESE,111,0.0,0.0,100,-99.99,,,-99.99,VWS V14.01,2013-07-09 14:43:00,
2013-07-09 10:44:00,69.7,69.7,30.12,ESE,111,0.0,0.0,100,-99.99,,,-99.99,VWS V14.01,2013-07-09 14:44:00,
2013-07-09 10:45:00,69.8,69.8,30.11,ESE,111,0.0,0.0,100,-99.99,,,-99.99,VWS V14.01,2013-07-09 14:45:00,
2013-07-09 10:46:00,69.8,69.8,30.11,ESE,111,0.0,0.0,100,-99.99,,,-99.99,VWS V14.01,2013-07-09 14:46:00,
2013-07-09 10:47:00,69.8,69.8,30.12,ESE,111,0.0,0.0,100,-99.99,,,-99.99,VWS V14.01,2013-07-09 14:47:00,
2013-07-09 10:48:00,69.8,69.8,30.12,ESE,111,0.0,0.0,100,-99.99,,,-99.99,VWS V14.01,2013-07-09 14:48:00,
2013-07-09 10:49:00,69.8,69.8,30.12,ESE,111,0.0,0.0,100,-99.99,,,-99.99,VWS V14.01,2013-07-09 14:49:00,
2013-07-09 10:50:00,69.9,69.9,30.12,ESE,111,0.0,0.0,100,-99.99,,,-99.99,VWS V14.01,2013-07-09 14:50:00,
2013-07-09 10:51:00,69.8,69.8,30.12,ESE,111,0.0,0.0,100,-99.99,,,-99.99,VWS V14.01,2013-07-09 14:51:00,
2013-07-09 10:52:00,69.8,69.8,30.12,ESE,111,0.0,0.0,100,-99.99,,,-99.99,VWS V14.01,2013-07-09 14:52:00,
2013-07-09 10:53:00,69.8,69.8,30.12,ESE,111,0.0,0.0,100,-99.99,,,-99.99,VWS V14.01,2013-07-09 14:53:00,
2013-07-09 10:54:00,69.8,69.8,30.12,ESE,111,0.0,0.0,100,-99.99,,,-99.99,VWS V14.01,2013-07-09 14:54:00,
2013-07-09 10:55:00,69.7,69.7,30.12,ESE,111,0.0,0.0,100,-99.99,,,-99.99,VWS V14.01,2013-07-09 14:55:00,
2013-07-09 10:56:00,69.8,69.8,30.12,ESE,111,0.0,0.0,100,-99.99,,,-99.99,VWS V14.01,2013-07-09 14:56:00,
2013-07-09 10:57:00,69.8,69.8,30.12,ESE,111,0.0,0.0,100,-99.99,,,-99.99,VWS V14.01,2013-07-09 14:57:00,
2013-07-09 10:58:00,69.8,69.8,30.12,ESE,111,0.0,0.0,100,-99.99,,,-99.99,VWS V14.01,2013-07-09 14:58:00,
2013-07-09 10:59:00,69.8,69.8,30.12,ESE,111,0.0,0.0,100,-99.99,,,-99.99,VWS V14.01,2013-07-09 14:59:00,
2013-07-09 11:00:00,69.9,69.9,30.12,ESE,111,0.0,0.0,100,-99.99,,,-99.99,VWS V14.01,2013-07-09 15:00:00,
2013-07-09 11:01:00,69.8,69.8,30.12,ESE,111,0.0,0.0,100,-99.99,,,-99.99,VWS V14.01,2013-07-09 15:01:00,
2013-07-09 11:02:00,69.9,69.9,30.12,ESE,111,0.0,0.0,100,-99.99,,,-99.99,VWS V14.01,2013-07-09 15:02:00,
2013-07-09 11:03:00,69.9,69.9,30.12,ESE,111,0.0,0.0,100,-99.99,,,-99.99,VWS V14.01,2013-07-09 15:03:00,
2013-07-09 11:04:00,69.9,69.9,30.12,ESE,111,0.0,0.0,100,-99.99,,,-99.99,VWS V14.01,2013-07-09 15:04:00,
2013-07-09 11:05:00,69.8,69.8,30.12,ESE,111,0.0,0.0,100,-99.99,,,-99.99,VWS V14.01,2013-07-09 15:05:00,
2013-07-09 11:06:00,69.8,69.8,30.12,ESE,111,0.0,0.0,100,-99.99,,,-99.99,VWS V14.01,2013-07-09 15:06:00,
2013-07-09 11:07:00,69.8,69.8,30.12,ESE,111,0.0,0.0,100,-99.99,,,-99.99,VWS V14.01,2013-07-09 15:07:00,
2013-07-09 11:08:00,69.8,69.8,30.11,ESE,111,0.0,0.0,100,-99.99,,,-99.99,VWS V14.01,2013-07-09 15:08:00,
2013-07-09 11:09:00,69.8,69.8,30.12,ESE,111,0.0,0.0,100,-99.99,,,-99.99,VWS V14.01,2013-07-09 15:09:00,
2013-07-09 11:10:00,69.8,69.8,30.11,ESE,111,0.0,0.0,100,-99.99,,,-99.99,VWS V14.01,2013-07-09 15:10:00,
2013-07-09 11:11:00,69.9,69.9,30.11,ESE,111,0.0,0.0,100,-99.99,,,-99.99,VWS V14.01,2013-07-09 15:11:00,
2013-07-09 11:24:00,70.0,70.0,30.12,ESE,111,0.0,0.0,100,-99.99,,,-99.99,VWS V14.01,2013-07-09 15:24:00,
2013-07-09 11:25:00,70.0,70.0,30.12,ESE,111,0.0,0.0,100,-99.99,,,-99.99,VWS V14.01,2013-07-09 15:25:00,
2013-07-09 11:26:00,70.1,70.1,30.11,ESE,111,0.0,0.0,100,-99.99,,,-99.99,VWS V14.01,2013-07-09 15:26:00,
2013-07-09 11:27:00,70.0,70.0,30.11,ESE,111,0.0,0.0,100,-99.99,,,-99.99,VWS V14.01,2013-07-09 15:27:00,
2013-07-09 11:28:00,70.2,70.2,30.11,ESE,111,0.0,0.0,100,-99.99,,,-99.99,VWS V14.01,2013-07-09 15:28:00,
2013-07-09 11:29:00,70.3,70.3,30.11,ESE,111,0.0,0.0,100,-99.99,,,-99.99,VWS V14.01,2013-07-09 15:29:00,
2013-07-09 11:30:00,70.3,70.3,30.11,ESE,111,0.0,0.0,100,-99.99,,,-99.99,VWS V14.01,2013-07-09 15:30:00,
2013-07-09 11:31:00,70.3,70.3,30.11,ESE,111,0.0,0.0,100,-99.99,,,-99.99,VWS V14.01,2013-07-09 15:31:00,
2013-07-09 11:32:00,70.3,70.3,30.11,ESE,111,0.0,0.0,100,-99.99,,,-99.99,VWS V14.01,2013-07-09 15:32:00,
2013-07-09 11:33:00,70.3,70.3,30.11,ESE,111,0.0,0.0,100,-99.99,,,-99.99,VWS V14.01,2013-07-09 15:33:00,
2013-07-09 11:34:00,70.3,70.3,30.11,ESE,111,0.0,0.0,100,-99.99,,,-99.99,VWS V14.01,2013-07-09 15:34:00,
2013-07-09 11:35:00,70.5,70.5,30.11,ESE,111,0.0,0.0,100,-99.99,,,-99.99,VWS V14.01,2013-07-09 15:35:00,
2013-07-09 11:36:00,70.4,70.4,30.11,ESE,111,0.0,0.0,100,-99.99,,,-99.99,VWS V14.01,2013-07-09 15:36:00,
2013-07-09 11:37:00,70.5,70.5,30.11,ESE,111,0.0,0.0,100,-99.99,,,-99.99,VWS V14.01,2013-07-09 15:37:00,
2013-07-09 11:38:00,70.4,70.4,30.11,ESE,111,0.0,0.0,100,-99.99,,,-99.99,VWS V14.01,2013-07-09 15:38:00,
2013-07-09 11:39:00,70.4,70.4,30.11,ESE,111,0.0,0.0,100,-99.99,,,-99.99,VWS V14.01,2013-07-09 15:39:00,
2013-07-09 11:40:00,70.5,70.5,30.11,ESE,111,0.0,0.0,100,-99.99,,,-99.99,VWS V14.01,2013-07-09 15:40:00,
2013-07-09 11:41:00,70.6,70.6,30.11,ESE,111,0.0,0.0,100,-99.99,,,-99.99,VWS V14.01,2013-07-09 15:41:00,
2013-07-09 11:42:00,70.6,70.6,30.11,ESE,111,0.0,0.0,100,-99.99,,,-99.99,VWS V14.01,2013-07-09 15:42:00,
2013-07-09 11:43:00,70.5,70.5,30.11,ESE,111,0.0,0.0,100,-99.99,,,-99.99,VWS V14.01,2013-07-09 15:43:00,
2013-07-09 11:44:00,70.6,70.6,30.11,ESE,111,0.0,0.0,100,-99.99,,,-99.99,VWS V14.01,2013-07-09 15:44:00,
2013-07-09 11:45:00,70.6,70.6,30.11,ESE,111,0.0,0.0,100,-99.99,,,-99.99,VWS V14.01,2013-07-09 15:45:00,
2013-07-09 11:46:00,70.6,70.6,30.11,ESE,111,0.0,0.0,100,-99.99,,,-99.99,VWS V14.01,2013-07-09 15:46:00,
2013-07-09 11:47:00,70.5,70.5,30.11,ESE,111,0.0,0.0,100,-99.99,,,-99.99,VWS V14.01,2013-07-09 15:47:00,
2013-07-09 11:48:00,70.6,70.6,30.11,ESE,111,0.0,0.0,100,-99.99,,,-99.99,VWS V14.01,2013-07-09 15:48:00,
2013-07-09 11:49:00,70.5,70.5,30.11,ESE,111,0.0,0.0,100,-99.99,,,-99.99,VWS V14.01,2013-07-09 15:49:00,
2013-07-09 11:50:00,70.6,70.6,30.11,ESE,111,0.0,0.0,100,-99.99,,,-99.99,VWS V14.01,2013-07-09 15:50:00,
2013-07-09 11:51:00,70.6,70.6,30.11,ESE,111,0.0,0.0,100,-99.99,,,-99.99,VWS V14.01,2013-07-09 15:51:00,
2013-07-09 11:52:00,70.7,70.7,30.11,ESE,111,0.0,0.0,100,-99.99,,,-99.99,VWS V14.01,2013-07-09 15:52:00,
2013-07-09 11:53:00,70.6,70.6,30.11,ESE,111,0.0,0.0,100,-99.99,,,-99.99,VWS V14.01,2013-07-09 15:53:00,
2013-07-09 11:54:00,70.8,70.8,30.11,ESE,111,0.0,0.0,100,-99.99,,,-99.99,VWS V14.01,2013-07-09 15:54:00,
2013-07-09 11:55:00,70.7,70.7,30.11,ESE,111,0.0,0.0,100,-99.99,,,-99.99,VWS V14.01,2013-07-09 15:55:00,
2013-07-09 11:56:00,70.7,70.7,30.11,ESE,111,0.0,0.0,100,-99.99,,,-99.99,VWS V14.01,2013-07-09 15:56:00,
2013-07-09 11:57:00,70.7,70.7,30.11,ESE,111,0.0,0.0,100,-99.99,,,-99.99,VWS V14.01,2013-07-09 15:57:00,
2013-07-09 11:58:00,70.8,70.8,30.11,ESE,111,0.0,0.0,100,-99.99,,,-99.99,VWS V14.01,2013-07-09 15:58:00,
2013-07-09 11:59:00,70.8,70.8,30.11,ESE,111,0.0,0.0,100,-99.99,,,-99.99,VWS V14.01,2013-07-09 15:59:00,
2013-07-09 12:00:00,70.9,70.9,30.11,ESE,111,0.0,0.0,100,-99.99,,,-99.99,VWS V14.01,2013-07-09 16:00:00,
2013-07-09 12:01:00,70.8,70.8,30.11,ESE,111,0.0,0.0,100,-99.99,,,-99.99,VWS V14.01,2013-07-09 16:01:00,
2013-07-09 12:02:00,70.9,70.9,30.11,ESE,111,0.0,0.0,100,-99.99,,,-99.99,VWS V14.01,2013-07-09 16:02:00,
2013-07-09 12:03:00,70.9,70.9,30.11,ESE,111,0.0,0.0,100,-99.99,,,-99.99,VWS V14.01,2013-07-09 16:03:00,
2013-07-09 12:04:00,70.9,70.9,30.11,ESE,111,0.0,0.0,100,-99.99,,,-99.99,VWS V14.01,2013-07-09 16:04:00,
2013-07-09 12:05:00,71.0,70.9,30.11,ESE,111,0.0,0.0,100,-99.99,,,-99.99,VWS V14.01,2013-07-09 16:05:00,
2013-07-09 12:06:00,71.0,70.9,30.11,ESE,111,0.0,0.0,100,-99.99,,,-99.99,VWS V14.01,2013-07-09 16:06:00,
2013-07-09 12:07:00,71.0,70.9,30.11,ESE,111,0.0,0.0,100,-99.99,,,-99.99,VWS V14.01,2013-07-09 16:07:00,
2013-07-09 12:08:00,71.0,70.9,30.11,ESE,111,0.0,0.0,100,-99.99,,,-99.99,VWS V14.01,2013-07-09 16:08:00,
2013-07-09 12:09:00,71.0,70.9,30.11,ESE,111,0.0,0.0,100,-99.99,,,-99.99,VWS V14.01,2013-07-09 16:09:00,
2013-07-09 12:10:00,71.1,71.0,30.11,ESE,111,0.0,0.0,100,-99.99,,,-99.99,VWS V14.01,2013-07-09 16:10:00,
2013-07-09 12:11:00,71.1,70.9,30.11,ESE,111,0.0,0.0,99,-99.99,,,-99.99,VWS V14.01,2013-07-09 16:11:00,
2013-07-09 12:12:00,71.2,71.0,30.11,ESE,111,0.0,0.0,99,-99.99,,,-99.99,VWS V14.01,2013-07-09 16:12:00,
2013-07-09 12:13:00,71.2,71.0,30.11,ESE,111,0.0,0.0,99,-99.99,,,-99.99,VWS V14.01,2013-07-09 16:13:00,
2013-07-09 12:14:00,71.2,70.8,30.11,ESE,111,0.0,0.0,99,-99.99,,,-99.99,VWS V14.01,2013-07-09 16:14:00,
2013-07-09 12:15:00,71.2,70.8,30.11,ESE,111,0.0,0.0,99,-99.99,,,-99.99,VWS V14.01,2013-07-09 16:15:00,
2013-07-09 12:16:00,71.2,70.8,30.11,ESE,111,0.0,0.0,98,-99.99,,,-99.99,VWS V14.01,2013-07-09 16:16:00,
2013-07-09 12:17:00,71.3,70.8,30.10,ESE,111,0.0,0.0,98,-99.99,,,-99.99,VWS V14.01,2013-07-09 16:17:00,
2013-07-09 12:18:00,71.4,70.9,30.10,ESE,111,0.0,0.0,98,-99.99,,,-99.99,VWS V14.01,2013-07-09 16:18:00,
2013-07-09 12:19:00,71.6,71.2,30.10,ESE,111,0.0,0.0,99,-99.99,,,-99.99,VWS V14.01,2013-07-09 16:19:00,
2013-07-09 12:20:00,71.7,71.3,30.10,ESE,111,0.0,0.0,99,-99.99,,,-99.99,VWS V14.01,2013-07-09 16:20:00,
2013-07-09 12:21:00,71.7,71.3,30.10,ESE,111,0.0,0.0,99,-99.99,,,-99.99,VWS V14.01,2013-07-09 16:21:00,
2013-07-09 12:22:00,71.9,71.4,30.10,ESE,110,0.0,5.3,98,-99.99,,,-99.99,VWS V14.01,2013-07-09 16:22:00,
2013-07-09 12:23:00,72.0,71.1,30.10,East,101,0.0,6.1,97,-99.99,,,-99.99,VWS V14.01,2013-07-09 16:23:00,
2013-07-09 12:24:00,72.1,70.9,30.10,ESE,111,0.0,0.0,96,-99.99,,,-99.99,VWS V14.01,2013-07-09 16:24:00,
2013-07-09 12:25:00,72.1,70.9,30.10,ESE,111,0.0,0.0,96,-99.99,,,-99.99,VWS V14.01,2013-07-09 16:25:00,
2013-07-09 12:26:00,72.3,71.1,30.10,East,86,0.0,2.9,96,-99.99,,,-99.99,VWS V14.01,2013-07-09 16:26:00,
2013-07-09 12:27:00,72.3,71.0,30.10,East,86,0.0,0.0,96,-99.99,,,-99.99,VWS V14.01,2013-07-09 16:27:00,
2013-07-09 12:28:00,72.4,70.9,30.10,East,86,0.0,0.0,95,-99.99,,,-99.99,VWS V14.01,2013-07-09 16:28:00,
2013-07-09 12:29:00,72.6,70.8,30.10,ESE,111,5.1,5.2,94,-99.99,,,-99.99,VWS V14.01,2013-07-09 16:29:00,
2013-07-09 12:30:00,72.6,70.8,30.10,SE,129,0.0,5.2,94,-99.99,,,-99.99,VWS V14.01,2013-07-09 16:30:00,
2013-07-09 12:31:00,72.7,70.5,30.10,SSE,150,0.0,5.2,93,-99.99,,,-99.99,VWS V14.01,2013-07-09 16:31:00,
2013-07-09 12:32:00,72.7,70.4,30.10,SSE,150,0.0,2.5,92,-99.99,,,-99.99,VWS V14.01,2013-07-09 16:32:00,
2013-07-09 12:33:00,72.8,70.4,30.10,SSE,150,0.0,0.0,92,-99.99,,,-99.99,VWS V14.01,2013-07-09 16:33:00,
2013-07-09 12:34:00,72.9,70.4,30.10,SSE,150,0.0,0.0,92,-99.99,,,-99.99,VWS V14.01,2013-07-09 16:34:00,
2013-07-09 12:36:00,73.0,70.1,30.10,SSE,150,0.0,0.0,90,-99.99,,,-99.99,VWS V14.01,2013-07-09 16:36:00,
2013-07-09 12:37:00,73.1,70.0,30.10,SSE,150,0.0,0.0,90,-99.99,,,-99.99,VWS V14.01,2013-07-09 16:37:00,
2013-07-09 12:38:00,73.1,70.0,30.10,SSE,150,0.0,0.0,90,-99.99,,,-99.99,VWS V14.01,2013-07-09 16:38:00,
2013-07-09 12:39:00,73.3,70.4,30.10,SSE,150,0.0,0.0,90,-99.99,,,-99.99,VWS V14.01,2013-07-09 16:39:00,
2013-07-09 12:40:00,73.4,70.4,30.10,SSE,150,0.0,0.0,90,-99.99,,,-99.99,VWS V14.01,2013-07-09 16:40:00,
2013-07-09 12:41:00,73.6,70.6,30.10,ESE,105,0.0,3.2,90,-99.99,,,-99.99,VWS V14.01,2013-07-09 16:41:00,
2013-07-09 12:42:00,73.6,70.5,30.10,ESE,105,0.0,0.0,90,-99.99,,,-99.99,VWS V14.01,2013-07-09 16:42:00,
2013-07-09 12:43:00,73.6,70.5,30.10,ESE,121,0.0,3.3,90,-99.99,,,-99.99,VWS V14.01,2013-07-09 16:43:00,
2013-07-09 12:44:00,73.8,70.6,30.10,ESE,121,0.0,0.0,90,-99.99,,,-99.99,VWS V14.01,2013-07-09 16:44:00,
2013-07-09 12:45:00,73.8,70.2,30.10,ESE,121,0.0,0.0,89,-99.99,,,-99.99,VWS V14.01,2013-07-09 16:45:00,
2013-07-09 12:46:00,73.9,70.3,30.10,ESE,121,0.0,0.0,88,-99.99,,,-99.99,VWS V14.01,2013-07-09 16:46:00,
2013-07-09 12:47:00,74.2,70.6,30.10,WSW,257,0.0,5.8,88,-99.99,,,-99.99,VWS V14.01,2013-07-09 16:47:00,
2013-07-09 12:48:00,74.3,70.8,30.10,WSW,257,0.0,1.7,89,-99.99,,,-99.99,VWS V14.01,2013-07-09 16:48:00,
2013-07-09 12:49:00,74.5,71.0,30.10,WSW,257,0.0,0.0,89,-99.99,,,-99.99,VWS V14.01,2013-07-09 16:49:00,
2013-07-09 12:50:00,74.5,71.1,30.10,WSW,257,0.0,0.0,89,-99.99,,,-99.99,VWS V14.01,2013-07-09 16:50:00,
2013-07-09 12:51:00,74.5,70.3,30.10,WSW,257,0.0,0.0,87,-99.99,,,-99.99,VWS V14.01,2013-07-09 16:51:00,
2013-07-09 12:52:00,74.6,69.7,30.10,WSW,257,0.0,0.0,85,-99.99,,,-99.99,VWS V14.01,2013-07-09 16:52:00,
2013-07-09 12:53:00,74.8,69.9,30.10,WSW,257,0.0,0.0,85,-99.99,,,-99.99,VWS V14.01,2013-07-09 16:53:00,
2013-07-09 12:54:00,74.9,70.4,30.10,NNW,333,0.0,0.0,86,-99.99,,,-99.99,VWS V14.01,2013-07-09 16:54:00,
2013-07-09 12:55:00,74.9,70.6,30.10,NNW,346,0.0,4.4,87,-99.99,,,-99.99,VWS V14.01,2013-07-09 16:55:00,
2013-07-09 12:56:00,75.2,70.6,30.10,NNW,346,0.0,0.0,86,-99.99,,,-99.99,VWS V14.01,2013-07-09 16:56:00,
2013-07-09 12:57:00,75.3,70.3,30.10,NNW,342,0.0,4.8,84,-99.99,,,-99.99,VWS V14.01,2013-07-09 16:57:00,
2013-07-09 12:58:00,75.3,70.0,30.10,NW,305,6.5,6.5,84,-99.99,,,-99.99,VWS V14.01,2013-07-09 16:58:00,
2013-07-09 12:59:00,75.4,69.8,30.10,West,271,0.0,0.0,83,-99.99,,,-99.99,VWS V14.01,2013-07-09 16:59:00,
2013-07-09 13:00:00,75.5,69.9,30.10,West,271,4.4,4.4,83,-99.99,,,-99.99,VWS V14.01,2013-07-09 17:00:00,
2013-07-09 13:01:00,75.6,70.2,30.10,North,359,0.0,4.4,83,-99.99,,,-99.99,VWS V14.01,2013-07-09 17:01:00,
2013-07-09 13:02:00,75.7,70.2,30.10,North,359,0.0,0.0,83,-99.99,,,-99.99,VWS V14.01,2013-07-09 17:02:00,
2013-07-09 13:03:00,75.8,70.3,30.10,North,359,0.0,0.0,83,-99.99,,,-99.99,VWS V14.01,2013-07-09 17:03:00,
2013-07-09 13:04:00,75.9,69.7,30.10,North,359,0.0,0.0,81,-99.99,,,-99.99,VWS V14.01,2013-07-09 17:04:00,
2013-07-09 13:05:00,75.8,69.4,30.10,North,359,0.0,0.0,80,-99.99,,,-99.99,VWS V14.01,2013-07-09 17:05:00,
2013-07-09 13:06:00,75.9,69.6,30.10,North,359,0.0,0.0,81,-99.99,,,-99.99,VWS V14.01,2013-07-09 17:06:00,
2013-07-09 13:07:00,75.9,69.6,30.10,North,359,0.0,0.0,81,-99.99,,,-99.99,VWS V14.01,2013-07-09 17:07:00,
2013-07-09 13:08:00,76.0,69.9,30.10,North,359,0.0,0.0,81,-99.99,,,-99.99,VWS V14.01,2013-07-09 17:08:00,
2013-07-09 13:09:00,76.3,70.1,30.10,North,359,0.0,0.0,81,-99.99,,,-99.99,VWS V14.01,2013-07-09 17:09:00,
2013-07-09 13:10:00,76.3,70.1,30.10,North,359,0.0,0.0,81,-99.99,,,-99.99,VWS V14.01,2013-07-09 17:10:00,
2013-07-09 13:11:00,76.3,70.0,30.10,North,359,0.0,0.0,81,-99.99,,,-99.99,VWS V14.01,2013-07-09 17:11:00,
2013-07-09 13:12:00,76.4,70.1,30.10,North,359,0.0,0.0,81,-99.99,,,-99.99,VWS V14.01,2013-07-09 17:12:00,
2013-07-09 13:13:00,76.3,69.7,30.10,North,359,0.0,0.0,80,-99.99,,,-99.99,VWS V14.01,2013-07-09 17:13:00,
2013-07-09 13:14:00,76.5,69.8,30.10,North,359,0.0,0.0,80,-99.99,,,-99.99,VWS V14.01,2013-07-09 17:14:00,
2013-07-09 13:15:00,76.4,69.8,30.10,North,359,0.0,0.0,80,-99.99,,,-99.99,VWS V14.01,2013-07-09 17:15:00,
2013-07-09 13:16:00,76.4,69.5,30.10,North,353,5.3,6.2,79,-99.99,,,-99.99,VWS V14.01,2013-07-09 17:16:00,
2013-07-09 13:17:00,76.5,69.7,30.10,NW,326,0.0,5.3,80,-99.99,,,-99.99,VWS V14.01,2013-07-09 17:17:00,
2013-07-09 13:18:00,76.6,70.0,30.10,NW,326,0.0,0.0,80,-99.99,,,-99.99,VWS V14.01,2013-07-09 17:18:00,
2013-07-09 13:19:00,76.6,69.8,30.10,NW,326,0.0,0.0,80,-99.99,,,-99.99,VWS V14.01,2013-07-09 17:19:00,
2013-07-09 13:20:00,76.7,69.8,30.10,NW,326,0.0,0.0,79,-99.99,,,-99.99,VWS V14.01,2013-07-09 17:20:00,
2013-07-09 13:21:00,76.8,69.7,30.10,NW,326,0.0,0.0,79,-99.99,,,-99.99,VWS V14.01,2013-07-09 17:21:00,
2013-07-09 13:22:00,76.8,69.3,30.10,NW,326,0.0,0.0,78,-99.99,,,-99.99,VWS V14.01,2013-07-09 17:22:00,
2013-07-09 13:23:00,76.7,68.9,30.10,NW,326,0.0,0.0,77,-99.99,,,-99.99,VWS V14.01,2013-07-09 17:23:00,
2013-07-09 13:24:00,76.8,68.8,30.10,NW,326,0.0,4.5,76,-99.99,,,-99.99,VWS V14.01,2013-07-09 17:24:00,
2013-07-09 13:25:00,76.9,69.0,30.10,NW,326,0.0,4.5,77,-99.99,,,-99.99,VWS V14.01,2013-07-09 17:25:00,
2013-07-09 13:26:00,77.0,69.0,30.10,SE,124,0.0,4.5,76,-99.99,,,-99.99,VWS V14.01,2013-07-09 17:26:00,
2013-07-09 13:27:00,76.9,68.8,30.10,SE,124,0.0,0.0,76,-99.99,,,-99.99,VWS V14.01,2013-07-09 17:27:00,
2013-07-09 13:28:00,76.9,69.0,30.10,North,359,5.3,5.9,77,-99.99,,,-99.99,VWS V14.01,2013-07-09 17:28:00,
2013-07-09 13:29:00,76.8,68.5,30.10,NW,325,0.0,0.0,76,-99.99,,,-99.99,VWS V14.01,2013-07-09 17:29:00,
2013-07-09 13:30:00,76.8,68.5,30.10,NW,325,0.0,0.0,76,-99.99,,,-99.99,VWS V14.01,2013-07-09 17:30:00,
2013-07-09 13:31:00,76.8,68.7,30.10,NW,325,0.0,0.0,76,-99.99,,,-99.99,VWS V14.01,2013-07-09 17:31:00,
2013-07-09 13:32:00,76.8,68.8,30.10,NW,325,0.0,0.0,76,-99.99,,,-99.99,VWS V14.01,2013-07-09 17:32:00,
2013-07-09 13:33:00,76.8,68.6,30.10,NW,325,0.0,0.0,76,-99.99,,,-99.99,VWS V14.01,2013-07-09 17:33:00,
2013-07-09 13:34:00,76.7,68.7,30.10,NW,325,0.0,0.0,76,-99.99,,,-99.99,VWS V14.01,2013-07-09 17:34:00,
2013-07-09 13:35:00,76.8,68.9,30.10,NW,325,0.0,0.0,76,-99.99,,,-99.99,VWS V14.01,2013-07-09 17:35:00,
2013-07-09 13:36:00,76.8,69.0,30.10,NW,325,0.0,0.0,77,-99.99,,,-99.99,VWS V14.01,2013-07-09 17:36:00,
2013-07-09 13:37:00,76.7,69.0,30.10,NW,325,0.0,0.0,77,-99.99,,,-99.99,VWS V14.01,2013-07-09 17:37:00,
2013-07-09 13:38:00,76.7,69.1,30.10,North,359,5.3,7.8,77,-99.99,,,-99.99,VWS V14.01,2013-07-09 17:38:00,
2013-07-09 13:39:00,76.7,69.0,30.10,NNW,340,0.0,3.3,77,-99.99,,,-99.99,VWS V14.01,2013-07-09 17:39:00,
2013-07-09 13:40:00,76.7,68.9,30.10,NNW,340,3.0,3.3,77,-99.99,,,-99.99,VWS V14.01,2013-07-09 17:40:00,
2013-07-09 13:41:00,76.6,68.9,30.10,NNW,340,0.0,3.0,77,-99.99,,,-99.99,VWS V14.01,2013-07-09 17:41:00,
2013-07-09 13:42:00,76.6,69.1,30.10,NNW,340,0.0,0.0,78,-99.99,,,-99.99,VWS V14.01,2013-07-09 17:42:00,
2013-07-09 13:43:00,76.6,69.1,30.10,NNW,340,0.0,0.0,78,-99.99,,,-99.99,VWS V14.01,2013-07-09 17:43:00,
2013-07-09 13:44:00,76.6,68.9,30.10,NNW,340,0.0,0.0,77,-99.99,,,-99.99,VWS V14.01,2013-07-09 17:44:00,
2013-07-09 13:45:00,76.5,69.1,30.10,NNW,340,0.0,0.0,78,-99.99,,,-99.99,VWS V14.01,2013-07-09 17:45:00,
2013-07-09 13:46:00,76.4,68.8,30.10,NW,314,5.0,7.3,77,-99.99,,,-99.99,VWS V14.01,2013-07-09 17:46:00,
2013-07-09 13:47:00,76.3,68.7,30.10,North,4,0.0,5.7,77,-99.99,,,-99.99,VWS V14.01,2013-07-09 17:47:00,
2013-07-09 13:48:00,76.3,68.8,30.10,North,4,0.0,0.0,78,-99.99,,,-99.99,VWS V14.01,2013-07-09 17:48:00,
2013-07-09 13:49:00,76.3,68.8,30.10,North,4,0.0,0.0,78,-99.99,,,-99.99,VWS V14.01,2013-07-09 17:49:00,
2013-07-09 13:50:00,76.3,68.9,30.10,North,4,0.0,0.0,78,-99.99,,,-99.99,VWS V14.01,2013-07-09 17:50:00,
2013-07-09 13:51:00,76.2,68.9,30.10,North,4,0.0,0.0,78,-99.99,,,-99.99,VWS V14.01,2013-07-09 17:51:00,
2013-07-09 13:52:00,76.3,69.1,30.10,East,84,2.5,3.0,78,-99.99,,,-99.99,VWS V14.01,2013-07-09 17:52:00,
2013-07-09 13:53:00,76.2,69.1,30.10,East,84,0.0,2.5,79,-99.99,,,-99.99,VWS V14.01,2013-07-09 17:53:00,
2013-07-09 13:54:00,76.2,69.2,30.10,East,84,0.0,0.0,79,-99.99,,,-99.99,VWS V14.01,2013-07-09 17:54:00,
2013-07-09 13:55:00,76.2,69.2,30.10,East,84,0.0,0.0,79,-99.99,,,-99.99,VWS V14.01,2013-07-09 17:55:00,
2013-07-09 13:56:00,76.2,69.1,30.10,East,84,0.0,0.0,79,-99.99,,,-99.99,VWS V14.01,2013-07-09 17:56:00,
2013-07-09 13:57:00,76.2,69.2,30.10,East,84,0.0,0.0,79,-99.99,,,-99.99,VWS V14.01,2013-07-09 17:57:00,
2013-07-09 13:58:00,76.2,69.2,30.10,East,84,0.0,0.0,79,-99.99,,,-99.99,VWS V14.01,2013-07-09 17:58:00,
2013-07-09 13:59:00,76.2,69.2,30.10,East,84,0.0,0.0,79,-99.99,,,-99.99,VWS V14.01,2013-07-09 17:59:00,
2013-07-09 14:00:00,76.2,69.0,30.10,East,84,0.0,0.0,78,-99.99,,,-99.99,VWS V14.01,2013-07-09 18:00:00,
2013-07-09 14:01:00,76.0,68.9,30.10,NW,322,3.4,5.5,79,-99.99,,,-99.99,VWS V14.01,2013-07-09 18:01:00,
2013-07-09 14:02:00,76.0,68.9,30.10,NW,322,0.0,3.4,79,-99.99,,,-99.99,VWS V14.01,2013-07-09 18:02:00,
2013-07-09 14:03:00,76.0,69.0,30.10,NW,322,0.0,0.0,79,-99.99,,,-99.99,VWS V14.01,2013-07-09 18:03:00,
2013-07-09 14:04:00,76.0,68.8,30.10,NW,322,0.0,0.0,78,-99.99,,,-99.99,VWS V14.01,2013-07-09 18:04:00,
2013-07-09 14:05:00,75.9,68.8,30.10,NW,322,0.0,0.0,79,-99.99,,,-99.99,VWS V14.01,2013-07-09 18:05:00,
2013-07-09 14:06:00,76.0,69.1,30.10,NW,322,0.0,0.0,79,-99.99,,,-99.99,VWS V14.01,2013-07-09 18:06:00,
2013-07-09 14:07:00,76.0,69.2,30.10,NW,322,0.0,0.0,80,-99.99,,,-99.99,VWS V14.01,2013-07-09 18:07:00,
2013-07-09 14:08:00,75.9,69.2,30.10,NW,322,0.0,0.0,80,-99.99,,,-99.99,VWS V14.01,2013-07-09 18:08:00,
2013-07-09 14:09:00,75.9,69.2,30.10,NW,322,0.0,0.0,80,-99.99,,,-99.99,VWS V14.01,2013-07-09 18:09:00,
2013-07-09 14:10:00,75.9,69.2,30.10,NW,322,0.0,0.0,80,-99.99,,,-99.99,VWS V14.01,2013-07-09 18:10:00,
2013-07-09 14:11:00,75.9,69.2,30.10,NW,322,0.0,0.0,80,-99.99,,,-99.99,VWS V14.01,2013-07-09 18:11:00,
2013-07-09 14:12:00,75.9,69.3,30.10,NW,322,0.0,0.0,80,-99.99,,,-99.99,VWS V14.01,2013-07-09 18:12:00,
2013-07-09 14:14:00,75.9,69.1,30.10,ESE,103,0.0,0.0,80,-99.99,,,-99.99,VWS V14.01,2013-07-09 18:14:00,
2013-07-09 14:15:00,75.9,69.1,30.10,ESE,103,0.0,0.0,80,-99.99,,,-99.99,VWS V14.01,2013-07-09 18:15:00,
2013-07-09 14:16:00,76.2,69.3,30.10,ESE,103,0.0,0.0,79,-99.99,,,-99.99,VWS V14.01,2013-07-09 18:16:00,
2013-07-09 14:17:00,76.0,69.2,30.10,ESE,103,0.0,0.0,80,-99.99,,,-99.99,VWS V14.01,2013-07-09 18:17:00,
2013-07-09 14:18:00,75.9,69.2,30.10,ESE,103,0.0,0.0,80,-99.99,,,-99.99,VWS V14.01,2013-07-09 18:18:00,
2013-07-09 14:19:00,75.9,69.0,30.10,ESE,103,0.0,0.0,79,-99.99,,,-99.99,VWS V14.01,2013-07-09 18:19:00,
2013-07-09 14:20:00,76.0,69.1,30.10,ESE,103,0.0,0.0,79,-99.99,,,-99.99,VWS V14.01,2013-07-09 18:20:00,
2013-07-09 14:21:00,75.9,69.2,30.10,ESE,103,0.0,0.0,80,-99.99,,,-99.99,VWS V14.01,2013-07-09 18:21:00,
2013-07-09 14:22:00,76.2,69.4,30.10,ESE,103,0.0,0.0,80,-99.99,,,-99.99,VWS V14.01,2013-07-09 18:22:00,
2013-07-09 14:23:00,75.9,69.2,30.10,ESE,103,0.0,0.0,80,-99.99,,,-99.99,VWS V14.01,2013-07-09 18:23:00,
2013-07-09 14:24:00,75.9,69.2,30.10,ESE,103,0.0,0.0,80,-99.99,,,-99.99,VWS V14.01,2013-07-09 18:24:00,
2013-07-09 14:25:00,76.0,69.1,30.10,ESE,103,0.0,0.0,79,-99.99,,,-99.99,VWS V14.01,2013-07-09 18:25:00,
2013-07-09 14:26:00,75.8,68.7,30.10,ESE,103,0.0,0.0,79,-99.99,,,-99.99,VWS V14.01,2013-07-09 18:26:00,
2013-07-09 14:27:00,75.9,69.1,30.10,ESE,103,0.0,0.0,80,-99.99,,,-99.99,VWS V14.01,2013-07-09 18:27:00,
2013-07-09 14:28:00,75.9,69.2,30.10,ESE,103,0.0,0.0,80,-99.99,,,-99.99,VWS V14.01,2013-07-09 18:28:00,
2013-07-09 14:29:00,75.9,69.2,30.10,ESE,103,0.0,0.0,80,-99.99,,,-99.99,VWS V14.01,2013-07-09 18:29:00,
2013-07-09 14:30:00,75.8,69.2,30.10,ESE,103,0.0,0.0,80,-99.99,,,-99.99,VWS V14.01,2013-07-09 18:30:00,
2013-07-09 14:31:00,75.9,69.4,30.10,ESE,103,0.0,0.0,80,-99.99,,,-99.99,VWS V14.01,2013-07-09 18:31:00,
2013-07-09 14:32:00,75.9,69.4,30.10,ESE,103,0.0,0.0,80,-99.99,,,-99.99,VWS V14.01,2013-07-09 18:32:00,
2013-07-09 14:33:00,75.9,69.3,30.10,ESE,103,0.0,0.0,80,-99.99,,,-99.99,VWS V14.01,2013-07-09 18:33:00,
2013-07-09 14:34:00,75.9,69.3,30.10,ESE,103,0.0,0.0,80,-99.99,,,-99.99,VWS V14.01,2013-07-09 18:34:00,
2013-07-09 14:35:00,76.0,69.4,30.10,ESE,103,0.0,0.0,80,-99.99,,,-99.99,VWS V14.01,2013-07-09 18:35:00,
2013-07-09 14:36:00,76.0,69.6,30.10,ESE,103,0.0,0.0,80,-99.99,,,-99.99,VWS V14.01,2013-07-09 18:36:00,
2013-07-09 14:37:00,76.0,69.6,30.10,ESE,103,0.0,0.0,81,-99.99,,,-99.99,VWS V14.01,2013-07-09 18:37:00,
2013-07-09 14:38:00,76.2,69.8,30.10,ESE,103,0.0,0.0,81,-99.99,,,-99.99,VWS V14.01,2013-07-09 18:38:00,
2013-07-09 14:39:00,76.3,70.0,30.10,ESE,103,0.0,0.0,81,-99.99,,,-99.99,VWS V14.01,2013-07-09 18:39:00,
2013-07-09 14:40:00,76.3,70.0,30.10,ESE,103,0.0,0.0,81,-99.99,,,-99.99,VWS V14.01,2013-07-09 18:40:00,
2013-07-09 14:41:00,76.3,70.0,30.10,ESE,103,0.0,3.3,81,-99.99,,,-99.99,VWS V14.01,2013-07-09 18:41:00,
2013-07-09 14:42:00,76.3,69.7,30.10,SSW,210,0.0,6.1,80,-99.99,,,-99.99,VWS V14.01,2013-07-09 18:42:00,
2013-07-09 14:43:00,76.3,69.3,30.09,WNW,301,3.2,8.4,79,-99.99,,,-99.99,VWS V14.01,2013-07-09 18:43:00,
2013-07-09 14:44:00,76.3,69.3,30.10,WNW,301,0.0,0.0,79,-99.99,,,-99.99,VWS V14.01,2013-07-09 18:44:00,
2013-07-09 14:45:00,76.3,69.3,30.09,WNW,301,0.0,0.0,79,-99.99,,,-99.99,VWS V14.01,2013-07-09 18:45:00,
2013-07-09 14:46:00,76.3,69.3,30.10,NNW,347,0.0,5.9,79,-99.99,,,-99.99,VWS V14.01,2013-07-09 18:46:00,
2013-07-09 14:47:00,76.4,69.1,30.10,NNE,31,4.2,8.0,78,-99.99,,,-99.99,VWS V14.01,2013-07-09 18:47:00,
2013-07-09 14:48:00,76.4,69.2,30.10,West,273,0.0,4.2,78,-99.99,,,-99.99,VWS V14.01,2013-07-09 18:48:00,
2013-07-09 14:49:00,76.4,69.2,30.10,West,273,0.0,0.0,78,-99.99,,,-99.99,VWS V14.01,2013-07-09 18:49:00,
2013-07-09 14:50:00,76.5,69.3,30.10,West,273,0.0,0.0,78,-99.99,,,-99.99,VWS V14.01,2013-07-09 18:50:00,
2013-07-09 14:51:00,76.5,69.2,30.09,West,273,0.0,0.0,78,-99.99,,,-99.99,VWS V14.01,2013-07-09 18:51:00,
2013-07-09 14:52:00,76.4,68.9,30.10,West,273,0.0,0.0,78,-99.99,,,-99.99,VWS V14.01,2013-07-09 18:52:00,
2013-07-09 14:53:00,76.4,68.8,30.09,West,273,0.0,0.0,77,-99.99,,,-99.99,VWS V14.01,2013-07-09 18:53:00,
2013-07-09 14:54:00,76.6,69.4,30.10,West,273,0.0,0.0,78,-99.99,,,-99.99,VWS V14.01,2013-07-09 18:54:00,
2013-07-09 14:55:00,76.6,69.5,30.09,West,273,0.0,0.0,79,-99.99,,,-99.99,VWS V14.01,2013-07-09 18:55:00,
2013-07-09 14:56:00,76.7,69.4,30.09,West,273,0.0,0.0,78,-99.99,,,-99.99,VWS V14.01,2013-07-09 18:56:00,
2013-07-09 14:57:00,76.8,69.7,30.09,West,273,0.0,0.0,79,-99.99,,,-99.99,VWS V14.01,2013-07-09 18:57:00,
2013-07-09 14:58:00,76.8,69.8,30.09,West,273,0.0,0.0,79,-99.99,,,-99.99,VWS V14.01,2013-07-09 18:58:00,
2013-07-09 14:59:00,76.9,69.8,30.09,West,273,0.0,0.0,79,-99.99,,,-99.99,VWS V14.01,2013-07-09 18:59:00,
2013-07-09 15:00:00,76.9,69.7,30.09,West,273,0.0,0.0,78,-99.99,,,-99.99,VWS V14.01,2013-07-09 19:00:00,
2013-07-09 15:01:00,77.0,69.7,30.09,NW,318,4.9,5.7,78,-99.99,,,-99.99,VWS V14.01,2013-07-09 19:01:00,
2013-07-09 15:02:00,77.2,70.0,30.09,NNW,330,4.7,5.7,78,-99.99,,,-99.99,VWS V14.01,2013-07-09 19:02:00,
2013-07-09 15:03:00,77.2,69.9,30.09,NNW,330,0.0,4.7,78,-99.99,,,-99.99,VWS V14.01,2013-07-09 19:03:00,
2013-07-09 15:04:00,77.4,69.9,30.09,NW,308,0.0,0.0,78,-99.99,,,-99.99,VWS V14.01,2013-07-09 19:04:00,
2013-07-09 15:05:00,77.5,70.1,30.09,NW,308,0.0,0.0,78,-99.99,,,-99.99,VWS V14.01,2013-07-09 19:05:00,
2013-07-09 15:06:00,77.5,69.6,30.09,NW,308,0.0,0.0,77,-99.99,,,-99.99,VWS V14.01,2013-07-09 19:06:00,
2013-07-09 15:07:00,77.5,69.3,30.09,NW,323,0.0,8.3,76,-99.99,,,-99.99,VWS V14.01,2013-07-09 19:07:00,
2013-07-09 15:08:00,77.5,69.4,30.09,NW,323,0.0,0.0,76,-99.99,,,-99.99,VWS V14.01,2013-07-09 19:08:00,
2013-07-09 15:09:00,77.6,69.5,30.09,NW,323,0.0,0.0,76,-99.99,,,-99.99,VWS V14.01,2013-07-09 19:09:00,
2013-07-09 15:10:00,77.6,69.4,30.08,NNW,332,3.4,4.2,76,-99.99,,,-99.99,VWS V14.01,2013-07-09 19:10:00,
2013-07-09 15:11:00,77.7,69.0,30.08,NNW,332,0.0,3.4,75,-99.99,,,-99.99,VWS V14.01,2013-07-09 19:11:00,
2013-07-09 15:12:00,77.6,69.0,30.08,NNW,332,0.0,0.0,75,-99.99,,,-99.99,VWS V14.01,2013-07-09 19:12:00,
2013-07-09 15:13:00,77.8,69.7,30.08,NNW,332,0.0,0.0,76,-99.99,,,-99.99,VWS V14.01,2013-07-09 19:13:00,
2013-07-09 15:14:00,77.9,70.0,30.08,West,274,3.0,3.2,77,-99.99,,,-99.99,VWS V14.01,2013-07-09 19:14:00,
2013-07-09 15:15:00,78.0,69.8,30.08,West,274,0.0,3.2,76,-99.99,,,-99.99,VWS V14.01,2013-07-09 19:15:00,
2013-07-09 15:16:00,77.9,68.9,30.08,West,274,0.0,0.0,74,-99.99,,,-99.99,VWS V14.01,2013-07-09 19:16:00,
2013-07-09 15:17:00,77.9,69.1,30.08,West,274,0.0,0.0,74,-99.99,,,-99.99,VWS V14.01,2013-07-09 19:17:00,
2013-07-09 15:18:00,78.0,69.4,30.08,West,274,0.0,0.0,75,-99.99,,,-99.99,VWS V14.01,2013-07-09 19:18:00,
2013-07-09 15:19:00,77.9,69.4,30.08,West,274,0.0,0.0,75,-99.99,,,-99.99,VWS V14.01,2013-07-09 19:19:00,
2013-07-09 15:20:00,78.0,69.6,30.08,West,274,0.0,0.0,75,-99.99,,,-99.99,VWS V14.01,2013-07-09 19:20:00,
2013-07-09 15:21:00,78.0,69.4,30.07,West,274,0.0,0.0,75,-99.99,,,-99.99,VWS V14.01,2013-07-09 19:21:00,
2013-07-09 15:22:00,78.2,69.3,30.08,West,274,0.0,0.0,74,-99.99,,,-99.99,VWS V14.01,2013-07-09 19:22:00,
2013-07-09 15:23:00,78.1,68.9,30.07,West,274,0.0,0.0,73,-99.99,,,-99.99,VWS V14.01,2013-07-09 19:23:00,
2013-07-09 15:24:00,78.3,69.2,30.07,WNW,298,4.7,5.2,74,-99.99,,,-99.99,VWS V14.01,2013-07-09 19:24:00,
2013-07-09 15:25:00,78.3,68.9,30.08,WNW,298,0.0,5.2,73,-99.99,,,-99.99,VWS V14.01,2013-07-09 19:25:00,
2013-07-09 15:26:00,78.3,68.9,30.07,NNW,330,7.0,7.4,73,-99.99,,,-99.99,VWS V14.01,2013-07-09 19:26:00,
2013-07-09 15:27:00,78.3,69.0,30.07,WNW,291,3.0,7.0,73,-99.99,,,-99.99,VWS V14.01,2013-07-09 19:27:00,
2013-07-09 15:28:00,78.4,69.2,30.07,WNW,291,0.0,3.0,73,-99.99,,,-99.99,VWS V14.01,2013-07-09 19:28:00,
2013-07-09 15:29:00,78.4,68.8,30.07,NW,321,0.0,0.0,72,-99.99,,,-99.99,VWS V14.01,2013-07-09 19:29:00,
2013-07-09 15:30:00,78.4,68.9,30.07,NW,321,0.0,0.0,73,-99.99,,,-99.99,VWS V14.01,2013-07-09 19:30:00,
2013-07-09 15:31:00,78.4,69.0,30.07,NW,321,0.0,0.0,73,-99.99,,,-99.99,VWS V14.01,2013-07-09 19:31:00,
2013-07-09 15:32:00,78.4,69.3,30.07,NW,321,0.0,0.0,74,-99.99,,,-99.99,VWS V14.01,2013-07-09 19:32:00,
2013-07-09 15:33:00,78.5,69.3,30.07,NW,321,0.0,0.0,74,-99.99,,,-99.99,VWS V14.01,2013-07-09 19:33:00,
2013-07-09 15:34:00,78.7,69.5,30.07,NW,321,0.0,0.0,73,-99.99,,,-99.99,VWS V14.01,2013-07-09 19:34:00,
2013-07-09 15:35:00,78.6,69.1,30.07,WNW,297,0.0,5.3,73,-99.99,,,-99.99,VWS V14.01,2013-07-09 19:35:00,
2013-07-09 15:36:00,78.7,69.3,30.07,NW,308,6.6,6.6,73,-99.99,,,-99.99,VWS V14.01,2013-07-09 19:36:00,
2013-07-09 15:37:00,78.6,68.9,30.07,NW,316,3.5,6.6,72,-99.99,,,-99.99,VWS V14.01,2013-07-09 19:37:00,
2013-07-09 15:38:00,78.5,68.7,30.07,West,266,0.0,11.0,72,-99.99,,,-99.99,VWS V14.01,2013-07-09 19:38:00,
2013-07-09 15:39:00,78.6,69.0,30.07,West,266,0.0,0.0,72,-99.99,,,-99.99,VWS V14.01,2013-07-09 19:39:00,
2013-07-09 15:40:00,78.6,69.0,30.07,NNW,330,3.5,5.9,72,-99.99,,,-99.99,VWS V14.01,2013-07-09 19:40:00,
2013-07-09 15:41:00,78.7,69.2,30.07,NNW,340,0.0,3.5,73,-99.99,,,-99.99,VWS V14.01,2013-07-09 19:41:00,
2013-07-09 15:42:00,78.5,69.0,30.07,NNW,340,0.0,0.0,73,-99.99,,,-99.99,VWS V14.01,2013-07-09 19:42:00,
2013-07-09 15:43:00,78.6,69.2,30.07,NNW,340,0.0,0.0,73,-99.99,,,-99.99,VWS V14.01,2013-07-09 19:43:00,
2013-07-09 15:44:00,78.6,69.5,30.06,NNW,340,0.0,0.0,74,-99.99,,,-99.99,VWS V14.01,2013-07-09 19:44:00,
2013-07-09 15:45:00,78.7,69.6,30.06,NNW,340,0.0,0.0,74,-99.99,,,-99.99,VWS V14.01,2013-07-09 19:45:00,
2013-07-09 15:46:00,78.6,69.6,30.07,NNW,340,0.0,0.0,74,-99.99,,,-99.99,VWS V14.01,2013-07-09 19:46:00,
2013-07-09 15:47:00,78.7,69.4,30.06,NNW,342,0.0,5.5,73,-99.99,,,-99.99,VWS V14.01,2013-07-09 19:47:00,
2013-07-09 15:48:00,78.6,69.2,30.06,NNW,335,0.0,6.5,73,-99.99,,,-99.99,VWS V14.01,2013-07-09 19:48:00,
2013-07-09 15:49:00,78.6,69.2,30.07,NNW,329,4.8,8.5,73,-99.99,,,-99.99,VWS V14.01,2013-07-09 19:49:00,
2013-07-09 15:50:00,78.4,68.9,30.06,NW,312,5.5,8.7,73,-99.99,,,-99.99,VWS V14.01,2013-07-09 19:50:00,
2013-07-09 15:51:00,78.3,68.8,30.06,North,359,0.0,7.1,73,-99.99,,,-99.99,VWS V14.01,2013-07-09 19:51:00,
2013-07-09 15:52:00,78.3,69.1,30.07,North,359,6.2,6.2,73,-99.99,,,-99.99,VWS V14.01,2013-07-09 19:52:00,
2013-07-09 15:53:00,78.2,69.0,30.07,WNW,292,3.1,8.4,74,-99.99,,,-99.99,VWS V14.01,2013-07-09 19:53:00,
2013-07-09 15:54:00,78.2,69.1,30.06,WNW,292,3.0,3.1,74,-99.99,,,-99.99,VWS V14.01,2013-07-09 19:54:00,
2013-07-09 15:55:00,78.1,69.1,30.06,WNW,292,0.0,3.0,74,-99.99,,,-99.99,VWS V14.01,2013-07-09 19:55:00,
2013-07-09 15:56:00,78.1,69.1,30.06,WNW,292,0.0,0.0,74,-99.99,,,-99.99,VWS V14.01,2013-07-09 19:56:00,
2013-07-09 15:57:00,78.1,69.3,30.06,WNW,292,0.0,0.0,74,-99.99,,,-99.99,VWS V14.01,2013-07-09 19:57:00,
2013-07-09 15:58:00,78.0,69.1,30.06,WNW,292,0.0,0.0,74,-99.99,,,-99.99,VWS V14.01,2013-07-09 19:58:00,
2013-07-09 15:59:00,77.9,69.1,30.06,WNW,290,0.0,3.2,74,-99.99,,,-99.99,VWS V14.01,2013-07-09 19:59:00,
2013-07-09 16:00:00,78.0,69.1,30.06,WNW,290,0.0,0.0,74,-99.99,,,-99.99,VWS V14.01,2013-07-09 20:00:00,
2013-07-09 16:01:00,78.0,69.2,30.06,WNW,290,0.0,3.4,74,-99.99,,,-99.99,VWS V14.01,2013-07-09 20:01:00,
2013-07-09 16:02:00,78.1,69.3,30.06,WNW,290,0.0,0.0,74,-99.99,,,-99.99,VWS V14.01,2013-07-09 20:02:00,
2013-07-09 16:03:00,78.1,69.5,30.06,NE,45,0.0,4.7,75,-99.99,,,-99.99,VWS V14.01,2013-07-09 20:03:00,
2013-07-09 16:04:00,78.1,69.4,30.06,NE,45,0.0,0.0,75,-99.99,,,-99.99,VWS V14.01,2013-07-09 20:04:00,
2013-07-09 16:05:00,78.1,69.1,30.06,NE,45,0.0,0.0,74,-99.99,,,-99.99,VWS V14.01,2013-07-09 20:05:00,
2013-07-09 16:06:00,78.2,69.4,30.06,NW,314,6.0,6.0,74,-99.99,,,-99.99,VWS V14.01,2013-07-09 20:06:00,
2013-07-09 16:07:00,78.1,69.3,30.05,NW,305,0.0,6.0,74,-99.99,,,-99.99,VWS V14.01,2013-07-09 20:07:00,
2013-07-09 16:08:00,78.2,69.5,30.05,NW,307,0.0,8.9,75,-99.99,,,-99.99,VWS V14.01,2013-07-09 20:08:00,
2013-07-09 16:09:00,78.3,69.6,30.05,NW,308,0.0,11.1,75,-99.99,,,-99.99,VWS V14.01,2013-07-09 20:09:00,
2013-07-09 16:10:00,78.3,69.7,30.05,NW,308,0.0,0.0,75,-99.99,,,-99.99,VWS V14.01,2013-07-09 20:10:00,
2013-07-09 16:11:00,78.4,69.6,30.05,West,263,0.0,5.0,74,-99.99,,,-99.99,VWS V14.01,2013-07-09 20:11:00,
2013-07-09 16:12:00,78.4,69.5,30.05,NW,316,2.7,6.6,74,-99.99,,,-99.99,VWS V14.01,2013-07-09 20:12:00,
2013-07-09 16:13:00,78.4,69.6,30.05,NW,316,0.0,2.7,74,-99.99,,,-99.99,VWS V14.01,2013-07-09 20:13:00,
2013-07-09 16:14:00,78.6,69.8,30.05,NW,316,0.0,0.0,74,-99.99,,,-99.99,VWS V14.01,2013-07-09 20:14:00,
2013-07-09 16:15:00,78.6,69.8,30.05,NW,316,0.0,0.0,74,-99.99,,,-99.99,VWS V14.01,2013-07-09 20:15:00,
2013-07-09 16:16:00,78.8,70.1,30.05,SSW,211,0.0,4.8,75,-99.99,,,-99.99,VWS V14.01,2013-07-09 20:16:00,
2013-07-09 16:17:00,78.9,70.2,30.05,SSW,211,0.0,0.0,75,-99.99,,,-99.99,VWS V14.01,2013-07-09 20:17:00,
2013-07-09 16:18:00,79.0,70.2,30.05,ESE,103,4.8,4.8,75,-99.99,,,-99.99,VWS V14.01,2013-07-09 20:18:00,
2013-07-09 16:19:00,79.0,69.6,30.05,ESE,121,0.0,5.0,73,-99.99,,,-99.99,VWS V14.01,2013-07-09 20:19:00,
2013-07-09 16:20:00,78.8,69.5,30.05,ESE,121,0.0,0.0,73,-99.99,,,-99.99,VWS V14.01,2013-07-09 20:20:00,
2013-07-09 16:21:00,78.9,69.6,30.05,ESE,121,0.0,0.0,73,-99.99,,,-99.99,VWS V14.01,2013-07-09 20:21:00,
2013-07-09 16:22:00,79.0,69.6,30.05,SE,127,0.0,4.6,73,-99.99,,,-99.99,VWS V14.01,2013-07-09 20:22:00,
2013-07-09 16:23:00,79.1,69.5,30.05,SE,127,0.0,0.0,72,-99.99,,,-99.99,VWS V14.01,2013-07-09 20:23:00,
2013-07-09 16:24:00,79.0,69.5,30.05,SE,127,0.0,0.0,73,-99.99,,,-99.99,VWS V14.01,2013-07-09 20:24:00,
2013-07-09 16:25:00,79.0,69.4,30.05,SE,127,0.0,0.0,73,-99.99,,,-99.99,VWS V14.01,2013-07-09 20:25:00,
2013-07-09 16:26:00,79.2,69.7,30.04,SE,127,0.0,0.0,73,-99.99,,,-99.99,VWS V14.01,2013-07-09 20:26:00,
2013-07-09 16:27:00,79.3,69.9,30.04,SE,127,0.0,0.0,73,-99.99,,,-99.99,VWS V14.01,2013-07-09 20:27:00,
2013-07-09 16:28:00,79.3,69.8,30.05,SE,127,0.0,0.0,73,-99.99,,,-99.99,VWS V14.01,2013-07-09 20:28:00,
2013-07-09 16:29:00,79.3,69.9,30.04,SE,127,0.0,0.0,73,-99.99,,,-99.99,VWS V14.01,2013-07-09 20:29:00,
2013-07-09 16:30:00,79.4,69.9,30.04,SE,127,0.0,0.0,73,-99.99,,,-99.99,VWS V14.01,2013-07-09 20:30:00,
2013-07-09 16:31:00,79.4,69.7,30.04,SE,127,0.0,0.0,72,-99.99,,,-99.99,VWS V14.01,2013-07-09 20:31:00,
2013-07-09 16:32:00,79.5,69.9,30.04,SE,127,0.0,0.0,72,-99.99,,,-99.99,VWS V14.01,2013-07-09 20:32:00,
2013-07-09 16:33:00,79.5,69.6,30.04,SE,127,0.0,0.0,72,-99.99,,,-99.99,VWS V14.01,2013-07-09 20:33:00,
2013-07-09 16:34:00,79.5,69.5,30.04,NW,322,4.8,7.1,72,-99.99,,,-99.99,VWS V14.01,2013-07-09 20:34:00,
2013-07-09 16:35:00,79.6,69.7,30.04,NW,305,0.0,5.2,72,-99.99,,,-99.99,VWS V14.01,2013-07-09 20:35:00,
2013-07-09 16:36:00,79.5,69.7,30.04,NW,305,0.0,0.0,72,-99.99,,,-99.99,VWS V14.01,2013-07-09 20:36:00,
2013-07-09 16:37:00,79.7,69.9,30.04,NW,305,0.0,0.0,72,-99.99,,,-99.99,VWS V14.01,2013-07-09 20:37:00,
2013-07-09 16:38:00,79.6,69.9,30.04,NW,305,0.0,0.0,72,-99.99,,,-99.99,VWS V14.01,2013-07-09 20:38:00,
2013-07-09 16:39:00,79.6,69.9,30.03,NW,305,0.0,0.0,72,-99.99,,,-99.99,VWS V14.01,2013-07-09 20:39:00,
2013-07-09 16:40:00,79.6,69.9,30.04,NW,305,0.0,0.0,72,-99.99,,,-99.99,VWS V14.01,2013-07-09 20:40:00,
2013-07-09 16:41:00,79.6,69.9,30.04,NW,305,0.0,0.0,72,-99.99,,,-99.99,VWS V14.01,2013-07-09 20:41:00,
2013-07-09 16:42:00,79.6,69.9,30.03,NW,305,0.0,0.0,72,-99.99,,,-99.99,VWS V14.01,2013-07-09 20:42:00,
2013-07-09 16:43:00,79.5,70.0,30.03,NW,305,0.0,0.0,73,-99.99,,,-99.99,VWS V14.01,2013-07-09 20:43:00,
2013-07-09 16:44:00,79.6,70.0,30.03,NW,305,0.0,0.0,72,-99.99,,,-99.99,VWS V14.01,2013-07-09 20:44:00,
2013-07-09 16:45:00,79.6,69.9,30.03,NW,305,0.0,0.0,72,-99.99,,,-99.99,VWS V14.01,2013-07-09 20:45:00,
2013-07-09 16:46:00,79.6,69.9,30.03,NW,305,0.0,0.0,72,-99.99,,,-99.99,VWS V14.01,2013-07-09 20:46:00,
2013-07-09 16:47:00,79.6,69.9,30.03,NW,305,0.0,0.0,72,-99.99,,,-99.99,VWS V14.01,2013-07-09 20:47:00,
2013-07-09 16:48:00,79.7,69.9,30.03,NW,316,2.7,4.4,72,-99.99,,,-99.99,VWS V14.01,2013-07-09 20:48:00,
2013-07-09 16:49:00,79.6,69.8,30.03,NW,316,0.0,2.9,72,-99.99,,,-99.99,VWS V14.01,2013-07-09 20:49:00,
2013-07-09 16:50:00,79.7,69.8,30.03,NW,316,0.0,0.0,72,-99.99,,,-99.99,VWS V14.01,2013-07-09 20:50:00,
2013-07-09 16:51:00,79.6,69.7,30.03,NW,316,0.0,0.0,72,-99.99,,,-99.99,VWS V14.01,2013-07-09 20:51:00,
2013-07-09 16:52:00,79.7,69.9,30.03,NW,316,0.0,0.0,72,-99.99,,,-99.99,VWS V14.01,2013-07-09 20:52:00,
2013-07-09 16:53:00,79.6,69.6,30.02,NW,316,0.0,0.0,72,-99.99,,,-99.99,VWS V14.01,2013-07-09 20:53:00,
2013-07-09 16:54:00,79.7,69.8,30.02,NW,316,0.0,0.0,72,-99.99,,,-99.99,VWS V14.01,2013-07-09 20:54:00,
2013-07-09 16:55:00,79.6,69.9,30.02,NW,316,0.0,0.0,72,-99.99,,,-99.99,VWS V14.01,2013-07-09 20:55:00,
2013-07-09 16:56:00,79.8,69.9,30.02,NW,316,0.0,0.0,72,-99.99,,,-99.99,VWS V14.01,2013-07-09 20:56:00,
2013-07-09 16:57:00,79.6,69.7,30.02,NW,316,0.0,0.0,72,-99.99,,,-99.99,VWS V14.01,2013-07-09 20:57:00,
2013-07-09 16:58:00,79.6,69.7,30.02,NW,316,0.0,0.0,72,-99.99,,,-99.99,VWS V14.01,2013-07-09 20:58:00,
2013-07-09 16:59:00,79.6,69.8,30.02,NW,316,0.0,0.0,72,-99.99,,,-99.99,VWS V14.01,2013-07-09 20:59:00,
2013-07-09 17:00:00,79.6,69.9,30.02,NW,316,0.0,0.0,72,-99.99,,,-99.99,VWS V14.01,2013-07-09 21:00:00,
2013-07-09 17:01:00,79.7,70.0,30.02,NW,316,0.0,0.0,72,-99.99,,,-99.99,VWS V14.01,2013-07-09 21:01:00,
2013-07-09 17:02:00,79.7,70.0,30.02,NW,316,0.0,0.0,72,-99.99,,,-99.99,VWS V14.01,2013-07-09 21:02:00,
2013-07-09 17:03:00,79.6,69.9,30.02,NW,316,0.0,0.0,72,-99.99,,,-99.99,VWS V14.01,2013-07-09 21:03:00,
2013-07-09 17:04:00,79.6,70.1,30.02,NW,316,0.0,0.0,73,-99.99,,,-99.99,VWS V14.01,2013-07-09 21:04:00,
2013-07-09 17:05:00,79.8,70.5,30.02,NW,316,0.0,0.0,73,-99.99,,,-99.99,VWS V14.01,2013-07-09 21:05:00,
2013-07-09 17:06:00,79.7,70.0,30.02,NW,316,0.0,0.0,72,-99.99,,,-99.99,VWS V14.01,2013-07-09 21:06:00,
2013-07-09 17:07:00,79.7,69.8,30.02,NW,316,0.0,0.0,72,-99.99,,,-99.99,VWS V14.01,2013-07-09 21:07:00,
2013-07-09 17:08:00,79.7,70.0,30.02,NW,316,0.0,0.0,72,-99.99,,,-99.99,VWS V14.01,2013-07-09 21:08:00,
2013-07-09 17:09:00,79.7,70.0,30.02,NW,316,0.0,0.0,72,-99.99,,,-99.99,VWS V14.01,2013-07-09 21:09:00,
2013-07-09 17:10:00,79.7,69.8,30.02,NW,316,0.0,0.0,72,-99.99,,,-99.99,VWS V14.01,2013-07-09 21:10:00,
2013-07-09 17:11:00,79.8,69.9,30.02,WNW,295,4.4,7.5,72,-99.99,,,-99.99,VWS V14.01,2013-07-09 21:11:00,
2013-07-09 17:12:00,79.7,69.6,30.02,NW,311,6.2,8.0,71,-99.99,,,-99.99,VWS V14.01,2013-07-09 21:12:00,
2013-07-09 17:13:00,79.6,69.6,30.02,NW,308,0.0,7.1,72,-99.99,,,-99.99,VWS V14.01,2013-07-09 21:13:00,
2013-07-09 17:14:00,79.7,69.8,30.02,NW,308,6.3,6.3,72,-99.99,,,-99.99,VWS V14.01,2013-07-09 21:14:00,
2013-07-09 17:15:00,79.7,69.8,30.02,NW,321,3.4,8.1,72,-99.99,,,-99.99,VWS V14.01,2013-07-09 21:15:00,
2013-07-09 17:16:00,79.6,69.7,30.02,NW,315,0.0,3.4,72,-99.99,,,-99.99,VWS V14.01,2013-07-09 21:16:00,
2013-07-09 17:17:00,79.7,69.8,30.02,NNE,15,0.0,11.1,72,-99.99,,,-99.99,VWS V14.01,2013-07-09 21:17:00,
2013-07-09 17:18:00,79.5,69.7,30.02,SW,219,0.0,6.9,72,-99.99,,,-99.99,VWS V14.01,2013-07-09 21:18:00,
2013-07-09 17:19:00,79.4,69.5,30.02,WNW,301,4.4,8.2,72,-99.99,,,-99.99,VWS V14.01,2013-07-09 21:19:00,
2013-07-09 17:20:00,79.3,69.6,30.02,North,352,0.0,2.9,72,-99.99,,,-99.99,VWS V14.01,2013-07-09 21:20:00,
2013-07-09 17:21:00,79.4,69.8,30.02,SSE,158,3.2,4.5,72,-99.99,,,-99.99,VWS V14.01,2013-07-09 21:21:00,
2013-07-09 17:22:00,79.3,69.8,30.02,SSE,158,0.0,3.2,73,-99.99,,,-99.99,VWS V14.01,2013-07-09 21:22:00,
2013-07-09 17:23:00,79.4,70.2,30.02,SSE,158,0.0,0.0,73,-99.99,,,-99.99,VWS V14.01,2013-07-09 21:23:00,
2013-07-09 17:24:00,79.4,69.9,30.02,WNW,295,0.0,4.4,73,-99.99,,,-99.99,VWS V14.01,2013-07-09 21:24:00,
2013-07-09 17:25:00,79.4,69.9,30.02,WNW,295,0.0,0.0,73,-99.99,,,-99.99,VWS V14.01,2013-07-09 21:25:00,
2013-07-09 17:26:00,79.3,69.7,30.02,WNW,295,0.0,0.0,72,-99.99,,,-99.99,VWS V14.01,2013-07-09 21:26:00,
2013-07-09 17:27:00,79.4,70.2,30.02,WNW,295,0.0,0.0,73,-99.99,,,-99.99,VWS V14.01,2013-07-09 21:27:00,
2013-07-09 17:28:00,79.2,69.8,30.02,WNW,295,0.0,0.0,73,-99.99,,,-99.99,VWS V14.01,2013-07-09 21:28:00,
2013-07-09 17:29:00,79.3,69.9,30.02,WNW,295,0.0,0.0,73,-99.99,,,-99.99,VWS V14.01,2013-07-09 21:29:00,
2013-07-09 17:30:00,79.4,70.1,30.02,WNW,295,0.0,0.0,73,-99.99,,,-99.99,VWS V14.01,2013-07-09 21:30:00,
2013-07-09 17:31:00,79.5,70.1,30.02,WNW,295,0.0,0.0,73,-99.99,,,-99.99,VWS V14.01,2013-07-09 21:31:00,
2013-07-09 17:32:00,79.5,70.1,30.02,WNW,291,4.5,7.3,73,-99.99,,,-99.99,VWS V14.01,2013-07-09 21:32:00,
2013-07-09 17:33:00,79.5,70.0,30.02,WNW,291,0.0,4.5,73,-99.99,,,-99.99,VWS V14.01,2013-07-09 21:33:00,
2013-07-09 17:34:00,79.6,70.3,30.02,WNW,291,0.0,0.0,73,-99.99,,,-99.99,VWS V14.01,2013-07-09 21:34:00,
2013-07-09 17:35:00,79.7,70.2,30.02,WNW,291,0.0,0.0,73,-99.99,,,-99.99,VWS V14.01,2013-07-09 21:35:00,
2013-07-09 17:36:00,79.7,69.9,30.02,WNW,291,0.0,2.1,72,-99.99,,,-99.99,VWS V14.01,2013-07-09 21:36:00,
2013-07-09 17:37:00,79.6,69.9,30.02,NNW,328,0.0,3.5,72,-99.99,,,-99.99,VWS V14.01,2013-07-09 21:37:00,
2013-07-09 17:38:00,79.8,70.2,30.02,NNW,328,0.0,0.0,72,-99.99,,,-99.99,VWS V14.01,2013-07-09 21:38:00,
2013-07-09 17:39:00,79.8,70.3,30.02,NNW,333,9.4,9.4,73,-99.99,,,-99.99,VWS V14.01,2013-07-09 21:39:00,
2013-07-09 17:40:00,79.7,69.8,30.02,WNW,291,0.0,8.3,72,-99.99,,,-99.99,VWS V14.01,2013-07-09 21:40:00,
2013-07-09 17:41:00,79.8,70.0,30.02,WNW,291,0.0,0.0,72,-99.99,,,-99.99,VWS V14.01,2013-07-09 21:41:00,
2013-07-09 17:42:00,79.7,70.0,30.02,NW,315,0.0,2.5,72,-99.99,,,-99.99,VWS V14.01,2013-07-09 21:42:00,
2013-07-09 17:43:00,79.7,69.9,30.02,NW,311,0.0,4.3,72,-99.99,,,-99.99,VWS V14.01,2013-07-09 21:43:00,
2013-07-09 17:44:00,79.9,70.0,30.02,NW,311,0.0,0.0,72,-99.99,,,-99.99,VWS V14.01,2013-07-09 21:44:00,
2013-07-09 17:45:00,79.9,70.2,30.02,NW,311,0.0,0.0,72,-99.99,,,-99.99,VWS V14.01,2013-07-09 21:45:00,
2013-07-09 17:46:00,79.9,70.1,30.02,NW,311,0.0,4.2,72,-99.99,,,-99.99,VWS V14.01,2013-07-09 21:46:00,
2013-07-09 17:47:00,79.9,69.9,30.02,NW,311,0.0,0.0,72,-99.99,,,-99.99,VWS V14.01,2013-07-09 21:47:00,
2013-07-09 17:48:00,79.9,69.9,30.02,NW,311,0.0,0.0,72,-99.99,,,-99.99,VWS V14.01,2013-07-09 21:48:00,
2013-07-09 17:49:00,79.9,69.9,30.02,NW,311,0.0,0.0,72,-99.99,,,-99.99,VWS V14.01,2013-07-09 21:49:00,
2013-07-09 17:50:00,79.9,69.7,30.02,NNW,330,6.0,6.1,71,-99.99,,,-99.99,VWS V14.01,2013-07-09 21:50:00,
2013-07-09 17:51:00,79.9,70.1,30.02,NW,318,2.9,6.0,72,-99.99,,,-99.99,VWS V14.01,2013-07-09 21:51:00,
2013-07-09 17:52:00,80.0,70.0,30.02,NW,318,0.0,2.9,72,-99.99,,,-99.99,VWS V14.01,2013-07-09 21:52:00,
2013-07-09 17:53:00,80.1,70.2,30.02,WSW,240,0.0,5.3,72,-99.99,,,-99.99,VWS V14.01,2013-07-09 21:53:00,
2013-07-09 17:54:00,80.2,70.3,30.02,WSW,240,0.0,0.0,72,-99.99,,,-99.99,VWS V14.01,2013-07-09 21:54:00,
2013-07-09 17:55:00,80.1,70.0,30.02,WSW,240,0.0,0.0,71,-99.99,,,-99.99,VWS V14.01,2013-07-09 21:55:00,
2013-07-09 17:56:00,80.1,70.1,30.02,WSW,240,0.0,0.0,72,-99.99,,,-99.99,VWS V14.01,2013-07-09 21:56:00,
2013-07-09 17:57:00,80.3,70.2,30.02,West,278,0.0,7.2,71,-99.99,,,-99.99,VWS V14.01,2013-07-09 21:57:00,
2013-07-09 17:58:00,80.4,70.1,30.02,West,278,0.0,0.0,71,-99.99,,,-99.99,VWS V14.01,2013-07-09 21:58:00,
2013-07-09 17:59:00,80.4,70.3,30.02,West,278,0.0,0.0,71,-99.99,,,-99.99,VWS V14.01,2013-07-09 21:59:00,
2013-07-09 18:00:00,80.5,70.5,30.02,West,278,0.0,0.0,72,-99.99,,,-99.99,VWS V14.01,2013-07-09 22:00:00,
2013-07-09 18:01:00,80.5,70.5,30.02,West,278,0.0,0.0,72,-99.99,,,-99.99,VWS V14.01,2013-07-09 22:01:00,
2013-07-09 18:02:00,80.7,70.6,30.02,West,278,0.0,0.0,71,-99.99,,,-99.99,VWS V14.01,2013-07-09 22:02:00,
2013-07-09 18:03:00,80.6,70.1,30.02,West,278,0.0,0.0,70,-99.99,,,-99.99,VWS V14.01,2013-07-09 22:03:00,
2013-07-09 18:04:00,80.7,70.2,30.02,West,278,0.0,0.0,70,-99.99,,,-99.99,VWS V14.01,2013-07-09 22:04:00,
2013-07-09 18:05:00,80.7,70.2,30.02,West,278,0.0,0.0,70,-99.99,,,-99.99,VWS V14.01,2013-07-09 22:05:00,
2013-07-09 18:06:00,80.8,70.3,30.02,West,278,0.0,0.0,70,-99.99,,,-99.99,VWS V14.01,2013-07-09 22:06:00,
2013-07-09 18:07:00,80.7,70.1,30.02,West,278,0.0,0.0,70,-99.99,,,-99.99,VWS V14.01,2013-07-09 22:07:00,
2013-07-09 18:08:00,80.7,70.1,30.02,West,278,0.0,3.2,70,-99.99,,,-99.99,VWS V14.01,2013-07-09 22:08:00,
2013-07-09 18:09:00,80.7,69.9,30.02,West,278,0.0,0.0,70,-99.99,,,-99.99,VWS V14.01,2013-07-09 22:09:00,
2013-07-09 18:10:00,80.8,70.3,30.02,NW,308,0.0,3.4,70,-99.99,,,-99.99,VWS V14.01,2013-07-09 22:10:00,
2013-07-09 18:11:00,80.7,70.1,30.02,NW,308,0.0,0.0,70,-99.99,,,-99.99,VWS V14.01,2013-07-09 22:11:00,
2013-07-09 18:12:00,80.7,70.0,30.02,NW,308,0.0,0.0,70,-99.99,,,-99.99,VWS V14.01,2013-07-09 22:12:00,
2013-07-09 18:13:00,80.7,70.0,30.02,NW,308,0.0,0.0,70,-99.99,,,-99.99,VWS V14.01,2013-07-09 22:13:00,
2013-07-09 18:14:00,80.7,69.9,30.02,NW,308,0.0,0.0,70,-99.99,,,-99.99,VWS V14.01,2013-07-09 22:14:00,
2013-07-09 18:15:00,80.9,70.2,30.02,NW,308,0.0,0.0,70,-99.99,,,-99.99,VWS V14.01,2013-07-09 22:15:00,
2013-07-09 18:16:00,80.9,70.2,30.02,NW,308,0.0,0.0,70,-99.99,,,-99.99,VWS V14.01,2013-07-09 22:16:00,
2013-07-09 18:17:00,80.8,70.0,30.02,NW,308,0.0,0.0,70,-99.99,,,-99.99,VWS V14.01,2013-07-09 22:17:00,
2013-07-09 18:18:00,80.9,70.2,30.02,NW,308,0.0,0.0,70,-99.99,,,-99.99,VWS V14.01,2013-07-09 22:18:00,
2013-07-09 18:19:00,80.9,70.0,30.02,NW,308,0.0,0.0,70,-99.99,,,-99.99,VWS V14.01,2013-07-09 22:19:00,
2013-07-09 18:20:00,80.8,69.7,30.02,NW,308,0.0,0.0,69,-99.99,,,-99.99,VWS V14.01,2013-07-09 22:20:00,
2013-07-09 18:21:00,80.8,69.8,30.02,NW,307,2.4,7.8,69,-99.99,,,-99.99,VWS V14.01,2013-07-09 22:21:00,
2013-07-09 18:22:00,80.9,69.9,30.02,NW,307,0.0,2.4,69,-99.99,,,-99.99,VWS V14.01,2013-07-09 22:22:00,
2013-07-09 18:23:00,80.8,69.9,30.02,NW,307,0.0,0.0,70,-99.99,,,-99.99,VWS V14.01,2013-07-09 22:23:00,
2013-07-09 18:24:00,80.9,70.0,30.02,NW,307,0.0,0.0,70,-99.99,,,-99.99,VWS V14.01,2013-07-09 22:24:00,
2013-07-09 18:25:00,80.8,69.9,30.02,NW,307,0.0,0.0,70,-99.99,,,-99.99,VWS V14.01,2013-07-09 22:25:00,
2013-07-09 18:26:00,80.9,70.1,30.02,NW,311,3.5,3.5,70,-99.99,,,-99.99,VWS V14.01,2013-07-09 22:26:00,
2013-07-09 18:27:00,80.9,70.2,30.02,WNW,297,0.0,3.5,70,-99.99,,,-99.99,VWS V14.01,2013-07-09 22:27:00,
2013-07-09 18:28:00,80.8,69.8,30.02,WNW,294,0.0,0.0,69,-99.99,,,-99.99,VWS V14.01,2013-07-09 22:28:00,
2013-07-09 18:29:00,80.9,69.9,30.02,WNW,294,0.0,0.0,69,-99.99,,,-99.99,VWS V14.01,2013-07-09 22:29:00,
2013-07-09 18:30:00,80.8,69.8,30.02,NW,325,0.0,5.8,69,-99.99,,,-99.99,VWS V14.01,2013-07-09 22:30:00,
2013-07-09 18:31:00,80.7,69.6,30.02,NW,309,7.6,9.6,69,-99.99,,,-99.99,VWS V14.01,2013-07-09 22:31:00,
2013-07-09 18:32:00,80.7,69.6,30.02,North,359,0.0,7.6,69,-99.99,,,-99.99,VWS V14.01,2013-07-09 22:32:00,
2013-07-09 18:33:00,80.7,69.6,30.02,WNW,292,5.6,5.6,69,-99.99,,,-99.99,VWS V14.01,2013-07-09 22:33:00,
2013-07-09 18:34:00,80.6,69.5,30.02,NW,304,0.0,5.6,69,-99.99,,,-99.99,VWS V14.01,2013-07-09 22:34:00,
2013-07-09 18:35:00,80.8,69.8,30.02,NW,304,0.0,0.0,69,-99.99,,,-99.99,VWS V14.01,2013-07-09 22:35:00,
2013-07-09 18:36:00,80.6,69.6,30.02,WNW,295,0.0,6.9,69,-99.99,,,-99.99,VWS V14.01,2013-07-09 22:36:00,
2013-07-09 18:37:00,80.6,69.7,30.02,WNW,295,0.0,0.0,69,-99.99,,,-99.99,VWS V14.01,2013-07-09 22:37:00,
2013-07-09 18:38:00,80.7,69.8,30.02,NW,316,7.0,7.0,70,-99.99,,,-99.99,VWS V14.01,2013-07-09 22:38:00,
2013-07-09 18:39:00,80.7,69.7,30.02,WSW,256,3.0,7.0,69,-99.99,,,-99.99,VWS V14.01,2013-07-09 22:39:00,
2013-07-09 18:40:00,80.6,69.6,30.02,NNW,328,3.4,6.4,69,-99.99,,,-99.99,VWS V14.01,2013-07-09 22:40:00,
2013-07-09 18:41:00,80.6,69.7,30.02,NNW,328,0.0,3.4,69,-99.99,,,-99.99,VWS V14.01,2013-07-09 22:41:00,
2013-07-09 18:42:00,80.6,69.7,30.02,NNW,328,0.0,0.0,69,-99.99,,,-99.99,VWS V14.01,2013-07-09 22:42:00,
2013-07-09 18:43:00,80.6,69.7,30.02,NNW,328,0.0,0.0,70,-99.99,,,-99.99,VWS V14.01,2013-07-09 22:43:00,
2013-07-09 18:44:00,80.8,69.9,30.02,NNW,328,0.0,0.0,70,-99.99,,,-99.99,VWS V14.01,2013-07-09 22:44:00,
2013-07-09 18:45:00,80.7,69.8,30.02,NNW,328,0.0,0.0,69,-99.99,,,-99.99,VWS V14.01,2013-07-09 22:45:00,
2013-07-09 18:46:00,80.6,69.5,30.02,NNW,328,0.0,0.0,69,-99.99,,,-99.99,VWS V14.01,2013-07-09 22:46:00,
2013-07-09 18:47:00,80.6,69.7,30.02,NW,309,0.0,5.5,69,-99.99,,,-99.99,VWS V14.01,2013-07-09 22:47:00,
2013-07-09 18:48:00,80.6,69.4,30.02,NW,309,0.0,0.0,69,-99.99,,,-99.99,VWS V14.01,2013-07-09 22:48:00,
2013-07-09 18:49:00,80.5,69.4,30.02,NW,309,0.0,0.0,69,-99.99,,,-99.99,VWS V14.01,2013-07-09 22:49:00,
2013-07-09 18:50:00,80.6,69.6,30.02,West,263,0.0,8.1,69,-99.99,,,-99.99,VWS V14.01,2013-07-09 22:50:00,
2013-07-09 18:51:00,80.5,69.5,30.02,West,263,0.0,0.0,69,-99.99,,,-99.99,VWS V14.01,2013-07-09 22:51:00,
2013-07-09 18:52:00,80.6,69.6,30.02,West,263,0.0,0.0,69,-99.99,,,-99.99,VWS V14.01,2013-07-09 22:52:00,
2013-07-09 18:53:00,80.6,69.8,30.02,West,263,0.0,0.0,70,-99.99,,,-99.99,VWS V14.01,2013-07-09 22:53:00,
2013-07-09 18:54:00,80.6,69.8,30.02,West,263,0.0,0.0,70,-99.99,,,-99.99,VWS V14.01,2013-07-09 22:54:00,
2013-07-09 18:55:00,80.6,69.8,30.02,West,263,0.0,0.0,70,-99.99,,,-99.99,VWS V14.01,2013-07-09 22:55:00,
2013-07-09 18:56:00,80.6,69.7,30.02,West,263,0.0,0.0,70,-99.99,,,-99.99,VWS V14.01,2013-07-09 22:56:00,
2013-07-09 18:57:00,80.6,69.8,30.02,West,263,0.0,0.0,70,-99.99,,,-99.99,VWS V14.01,2013-07-09 22:57:00,
2013-07-09 18:58:00,80.5,69.7,30.02,West,263,2.3,2.3,70,-99.99,,,-99.99,VWS V14.01,2013-07-09 22:58:00,
2013-07-09 18:59:00,80.6,69.8,30.02,West,263,0.0,2.9,70,-99.99,,,-99.99,VWS V14.01,2013-07-09 22:59:00,
2013-07-09 19:00:00,80.6,69.8,30.02,West,263,0.0,0.0,70,-99.99,,,-99.99,VWS V14.01,2013-07-09 23:00:00,
2013-07-09 19:01:00,80.6,69.7,30.02,West,263,0.0,0.0,70,-99.99,,,-99.99,VWS V14.01,2013-07-09 23:01:00,
2013-07-09 19:02:00,80.5,69.7,30.02,West,273,0.0,4.3,70,-99.99,,,-99.99,VWS V14.01,2013-07-09 23:02:00,
2013-07-09 19:03:00,80.5,69.7,30.02,WNW,298,0.0,5.0,70,-99.99,,,-99.99,VWS V14.01,2013-07-09 23:03:00,
2013-07-09 19:04:00,80.4,69.6,30.02,WNW,298,0.0,5.0,70,-99.99,,,-99.99,VWS V14.01,2013-07-09 23:04:00,
2013-07-09 19:05:00,80.4,69.7,30.02,West,276,0.0,3.5,70,-99.99,,,-99.99,VWS V14.01,2013-07-09 23:05:00,
2013-07-09 19:06:00,80.4,69.8,30.02,West,276,0.0,0.0,70,-99.99,,,-99.99,VWS V14.01,2013-07-09 23:06:00,
2013-07-09 19:07:00,80.5,69.9,30.02,West,276,0.0,0.0,70,-99.99,,,-99.99,VWS V14.01,2013-07-09 23:07:00,
2013-07-09 19:08:00,80.4,69.9,30.02,West,276,0.0,0.0,70,-99.99,,,-99.99,VWS V14.01,2013-07-09 23:08:00,
2013-07-09 19:09:00,80.4,69.9,30.02,West,276,0.0,0.0,70,-99.99,,,-99.99,VWS V14.01,2013-07-09 23:09:00,
2013-07-09 19:10:00,80.3,69.7,30.02,NW,314,4.4,8.9,70,-99.99,,,-99.99,VWS V14.01,2013-07-09 23:10:00,
2013-07-09 19:11:00,80.2,69.7,30.02,NW,314,0.0,4.4,70,-99.99,,,-99.99,VWS V14.01,2013-07-09 23:11:00,
2013-07-09 19:12:00,80.2,69.8,30.02,NW,314,0.0,0.0,71,-99.99,,,-99.99,VWS V14.01,2013-07-09 23:12:00,
2013-07-09 19:13:00,80.2,69.9,30.02,NW,314,0.0,0.0,71,-99.99,,,-99.99,VWS V14.01,2013-07-09 23:13:00,
2013-07-09 19:14:00,80.2,70.0,30.02,NW,314,0.0,0.0,71,-99.99,,,-99.99,VWS V14.01,2013-07-09 23:14:00,
2013-07-09 19:15:00,80.1,69.9,30.02,NW,314,0.0,0.0,71,-99.99,,,-99.99,VWS V14.01,2013-07-09 23:15:00,
2013-07-09 19:16:00,80.1,70.0,30.02,NW,314,0.0,0.0,71,-99.99,,,-99.99,VWS V14.01,2013-07-09 23:16:00,
2013-07-09 19:17:00,80.2,70.0,30.02,NW,314,0.0,0.0,71,-99.99,,,-99.99,VWS V14.01,2013-07-09 23:17:00,
2013-07-09 19:18:00,80.0,69.9,30.02,NW,314,0.0,0.0,71,-99.99,,,-99.99,VWS V14.01,2013-07-09 23:18:00,
2013-07-09 19:19:00,80.1,70.0,30.02,NW,314,0.0,0.0,71,-99.99,,,-99.99,VWS V14.01,2013-07-09 23:19:00,
2013-07-09 19:20:00,80.1,70.0,30.02,NW,314,0.0,0.0,71,-99.99,,,-99.99,VWS V14.01,2013-07-09 23:20:00,
2013-07-09 19:21:00,80.2,70.2,30.02,NW,314,0.0,0.0,72,-99.99,,,-99.99,VWS V14.01,2013-07-09 23:21:00,
2013-07-09 19:22:00,80.1,70.0,30.02,NW,314,0.0,0.0,71,-99.99,,,-99.99,VWS V14.01,2013-07-09 23:22:00,
2013-07-09 19:23:00,80.1,70.2,30.02,NW,314,0.0,0.0,72,-99.99,,,-99.99,VWS V14.01,2013-07-09 23:23:00,
2013-07-09 19:24:00,80.1,70.2,30.02,NW,314,0.0,0.0,72,-99.99,,,-99.99,VWS V14.01,2013-07-09 23:24:00,
2013-07-09 19:25:00,80.0,70.1,30.02,NW,314,0.0,0.0,72,-99.99,,,-99.99,VWS V14.01,2013-07-09 23:25:00,
2013-07-09 19:26:00,80.2,70.2,30.02,NW,314,0.0,0.0,72,-99.99,,,-99.99,VWS V14.01,2013-07-09 23:26:00,
2013-07-09 19:27:00,80.1,70.2,30.02,NW,314,0.0,0.0,72,-99.99,,,-99.99,VWS V14.01,2013-07-09 23:27:00,
2013-07-09 19:28:00,79.9,69.8,30.02,NNW,328,0.0,0.0,71,-99.99,,,-99.99,VWS V14.01,2013-07-09 23:28:00,
2013-07-09 19:29:00,80.0,69.8,30.02,NNW,328,0.0,0.0,71,-99.99,,,-99.99,VWS V14.01,2013-07-09 23:29:00,
2013-07-09 19:30:00,80.0,70.0,30.03,NNW,328,0.0,0.0,72,-99.99,,,-99.99,VWS V14.01,2013-07-09 23:30:00,
2013-07-09 19:31:00,80.0,70.1,30.02,NNW,328,0.0,0.0,72,-99.99,,,-99.99,VWS V14.01,2013-07-09 23:31:00,
2013-07-09 19:32:00,80.0,70.1,30.02,NNW,328,0.0,0.0,72,-99.99,,,-99.99,VWS V14.01,2013-07-09 23:32:00,
2013-07-09 19:33:00,80.0,70.1,30.02,NNW,328,0.0,0.0,72,-99.99,,,-99.99,VWS V14.01,2013-07-09 23:33:00,
2013-07-09 19:34:00,80.0,70.0,30.02,NNW,328,0.0,0.0,72,-99.99,,,-99.99,VWS V14.01,2013-07-09 23:34:00,
2013-07-09 19:35:00,79.9,69.9,30.02,NNW,328,0.0,0.0,72,-99.99,,,-99.99,VWS V14.01,2013-07-09 23:35:00,
2013-07-09 19:36:00,79.9,69.9,30.02,NNW,328,0.0,0.0,72,-99.99,,,-99.99,VWS V14.01,2013-07-09 23:36:00,
2013-07-09 19:37:00,80.0,70.1,30.03,NNW,328,0.0,0.0,72,-99.99,,,-99.99,VWS V14.01,2013-07-09 23:37:00,
2013-07-09 19:38:00,79.9,69.9,30.02,NW,321,0.0,0.0,72,-99.99,,,-99.99,VWS V14.01,2013-07-09 23:38:00,
2013-07-09 19:39:00,79.9,69.9,30.02,NW,321,0.0,0.0,72,-99.99,,,-99.99,VWS V14.01,2013-07-09 23:39:00,
2013-07-09 19:40:00,79.9,70.0,30.03,NW,321,0.0,0.0,72,-99.99,,,-99.99,VWS V14.01,2013-07-09 23:40:00,
2013-07-09 19:41:00,79.9,70.1,30.02,NW,321,0.0,0.0,72,-99.99,,,-99.99,VWS V14.01,2013-07-09 23:41:00,
2013-07-09 19:42:00,79.9,70.2,30.03,NW,321,0.0,0.0,72,-99.99,,,-99.99,VWS V14.01,2013-07-09 23:42:00,
2013-07-09 19:43:00,79.9,70.3,30.03,NW,321,0.0,0.0,72,-99.99,,,-99.99,VWS V14.01,2013-07-09 23:43:00,
2013-07-09 19:44:00,79.8,70.2,30.03,NW,321,0.0,0.0,73,-99.99,,,-99.99,VWS V14.01,2013-07-09 23:44:00,
2013-07-09 19:45:00,79.9,70.4,30.03,NW,321,0.0,0.0,73,-99.99,,,-99.99,VWS V14.01,2013-07-09 23:45:00,
2013-07-09 19:46:00,79.8,70.4,30.03,NW,321,0.0,0.0,73,-99.99,,,-99.99,VWS V14.01,2013-07-09 23:46:00,
2013-07-09 19:47:00,79.8,70.3,30.03,NW,321,0.0,0.0,73,-99.99,,,-99.99,VWS V14.01,2013-07-09 23:47:00,
2013-07-09 19:48:00,79.8,70.4,30.03,NW,321,0.0,0.0,73,-99.99,,,-99.99,VWS V14.01,2013-07-09 23:48:00,
2013-07-09 19:49:00,79.9,70.5,30.03,NW,321,0.0,0.0,73,-99.99,,,-99.99,VWS V14.01,2013-07-09 23:49:00,
2013-07-09 19:50:00,79.7,70.2,30.02,NW,321,0.0,0.0,73,-99.99,,,-99.99,VWS V14.01,2013-07-09 23:50:00,
2013-07-09 19:51:00,79.7,70.2,30.02,NW,321,0.0,0.0,73,-99.99,,,-99.99,VWS V14.01,2013-07-09 23:51:00,
2013-07-09 19:52:00,79.8,70.3,30.02,NW,321,0.0,0.0,73,-99.99,,,-99.99,VWS V14.01,2013-07-09 23:52:00,
2013-07-09 19:53:00,79.6,70.2,30.02,NW,321,0.0,0.0,73,-99.99,,,-99.99,VWS V14.01,2013-07-09 23:53:00,
2013-07-09 19:54:00,79.7,70.3,30.02,NW,321,0.0,0.0,73,-99.99,,,-99.99,VWS V14.01,2013-07-09 23:54:00,
2013-07-09 19:55:00,79.6,70.2,30.02,NW,321,0.0,0.0,73,-99.99,,,-99.99,VWS V14.01,2013-07-09 23:55:00,
2013-07-09 19:56:00,79.6,70.3,30.02,NW,321,0.0,0.0,73,-99.99,,,-99.99,VWS V14.01,2013-07-09 23:56:00,
2013-07-09 19:57:00,79.7,70.4,30.02,NW,321,0.0,0.0,73,-99.99,,,-99.99,VWS V14.01,2013-07-09 23:57:00,
2013-07-09 19:58:00,79.7,70.5,30.02,NW,321,0.0,0.0,74,-99.99,,,-99.99,VWS V14.01,2013-07-09 23:58:00,
2013-07-09 19:59:00,79.7,70.5,30.02,NW,321,0.0,0.0,74,-99.99,,,-99.99,VWS V14.01,2013-07-09 23:59:00,
2013-07-09 20:00:00,79.7,70.6,30.02,NW,321,0.0,0.0,74,-99.99,,,-99.99,VWS V14.01,2013-07-10 00:00:00,
2013-07-09 20:01:00,79.7,70.6,30.02,NW,321,0.0,0.0,74,-99.99,,,-99.99,VWS V14.01,2013-07-10 00:01:00,
2013-07-09 20:02:00,79.7,70.6,30.02,NW,321,0.0,0.0,74,-99.99,,,-99.99,VWS V14.01,2013-07-10 00:02:00,
2013-07-09 20:03:00,79.7,70.7,30.02,NW,321,0.0,0.0,74,-99.99,,,-99.99,VWS V14.01,2013-07-10 00:03:00,
2013-07-09 20:04:00,79.6,70.6,30.02,NW,321,0.0,0.0,74,-99.99,,,-99.99,VWS V14.01,2013-07-10 00:04:00,
2013-07-09 20:05:00,79.7,70.8,30.02,NW,321,0.0,0.0,74,-99.99,,,-99.99,VWS V14.01,2013-07-10 00:05:00,
2013-07-09 20:06:00,79.6,70.7,30.02,NW,321,0.0,0.0,74,-99.99,,,-99.99,VWS V14.01,2013-07-10 00:06:00,
2013-07-09 20:07:00,79.6,70.7,30.02,NW,321,0.0,0.0,74,-99.99,,,-99.99,VWS V14.01,2013-07-10 00:07:00,
2013-07-09 20:08:00,79.5,70.7,30.02,NW,321,0.0,0.0,74,-99.99,,,-99.99,VWS V14.01,2013-07-10 00:08:00,
2013-07-09 20:09:00,79.5,70.7,30.02,NW,321,0.0,0.0,74,-99.99,,,-99.99,VWS V14.01,2013-07-10 00:09:00,
2013-07-09 20:10:00,79.5,70.7,30.02,NW,321,0.0,0.0,74,-99.99,,,-99.99,VWS V14.01,2013-07-10 00:10:00,
2013-07-09 20:11:00,79.6,70.8,30.02,NW,321,0.0,0.0,74,-99.99,,,-99.99,VWS V14.01,2013-07-10 00:11:00,
2013-07-09 20:12:00,79.5,70.7,30.02,NW,321,0.0,0.0,74,-99.99,,,-99.99,VWS V14.01,2013-07-10 00:12:00,
2013-07-09 20:13:00,79.4,70.6,30.02,NW,321,0.0,0.0,74,-99.99,,,-99.99,VWS V14.01,2013-07-10 00:13:00,
2013-07-09 20:14:00,79.4,70.6,30.02,NW,321,0.0,0.0,74,-99.99,,,-99.99,VWS V14.01,2013-07-10 00:14:00,
2013-07-09 20:15:00,79.4,70.6,30.02,NW,321,0.0,0.0,75,-99.99,,,-99.99,VWS V14.01,2013-07-10 00:15:00,
2013-07-09 20:16:00,79.3,70.6,30.02,NW,321,0.0,0.0,75,-99.99,,,-99.99,VWS V14.01,2013-07-10 00:16:00,
2013-07-09 20:17:00,79.3,70.6,30.02,NW,321,0.0,0.0,75,-99.99,,,-99.99,VWS V14.01,2013-07-10 00:17:00,
2013-07-09 20:18:00,79.2,70.6,30.02,NW,321,0.0,0.0,75,-99.99,,,-99.99,VWS V14.01,2013-07-10 00:18:00,
2013-07-09 20:19:00,79.3,70.7,30.02,NW,321,0.0,0.0,75,-99.99,,,-99.99,VWS V14.01,2013-07-10 00:19:00,
2013-07-09 20:20:00,79.2,70.7,30.02,NW,321,0.0,0.0,75,-99.99,,,-99.99,VWS V14.01,2013-07-10 00:20:00,
2013-07-09 20:21:00,79.2,70.8,30.02,NW,321,0.0,0.0,75,-99.99,,,-99.99,VWS V14.01,2013-07-10 00:21:00,
2013-07-09 20:22:00,79.2,70.8,30.02,NW,321,0.0,0.0,75,-99.99,,,-99.99,VWS V14.01,2013-07-10 00:22:00,
2013-07-09 20:23:00,79.0,70.6,30.02,NW,321,0.0,0.0,76,-99.99,,,-99.99,VWS V14.01,2013-07-10 00:23:00,
2013-07-09 20:24:00,79.1,70.7,30.02,NW,321,0.0,0.0,76,-99.99,,,-99.99,VWS V14.01,2013-07-10 00:24:00,
2013-07-09 20:25:00,79.1,70.8,30.02,NW,321,0.0,0.0,76,-99.99,,,-99.99,VWS V14.01,2013-07-10 00:25:00,
2013-07-09 20:26:00,79.0,70.8,30.02,NW,321,0.0,0.0,76,-99.99,,,-99.99,VWS V14.01,2013-07-10 00:26:00,
2013-07-09 20:27:00,78.9,70.7,30.02,NW,321,0.0,0.0,76,-99.99,,,-99.99,VWS V14.01,2013-07-10 00:27:00,
2013-07-09 20:28:00,78.9,70.9,30.02,NW,321,0.0,0.0,76,-99.99,,,-99.99,VWS V14.01,2013-07-10 00:28:00,
2013-07-09 20:29:00,78.8,70.8,30.02,NW,321,0.0,0.0,77,-99.99,,,-99.99,VWS V14.01,2013-07-10 00:29:00,
2013-07-09 20:30:00,78.7,70.8,30.02,NW,321,0.0,0.0,77,-99.99,,,-99.99,VWS V14.01,2013-07-10 00:30:00,
2013-07-09 20:31:00,78.6,70.8,30.02,NW,321,0.0,0.0,77,-99.99,,,-99.99,VWS V14.01,2013-07-10 00:31:00,
2013-07-09 20:32:00,78.5,70.8,30.02,NW,321,0.0,0.0,77,-99.99,,,-99.99,VWS V14.01,2013-07-10 00:32:00,
2013-07-09 20:33:00,78.4,70.7,30.02,NW,321,0.0,0.0,77,-99.99,,,-99.99,VWS V14.01,2013-07-10 00:33:00,
2013-07-09 20:34:00,78.5,70.8,30.02,NW,321,0.0,0.0,77,-99.99,,,-99.99,VWS V14.01,2013-07-10 00:34:00,
2013-07-09 20:35:00,78.5,70.9,30.02,NW,321,0.0,0.0,78,-99.99,,,-99.99,VWS V14.01,2013-07-10 00:35:00,
2013-07-09 20:36:00,78.3,70.8,30.01,NW,321,0.0,0.0,78,-99.99,,,-99.99,VWS V14.01,2013-07-10 00:36:00,
2013-07-09 20:37:00,78.3,70.8,30.01,NW,321,0.0,0.0,78,-99.99,,,-99.99,VWS V14.01,2013-07-10 00:37:00,
2013-07-09 20:38:00,78.1,70.7,30.01,NW,321,0.0,0.0,78,-99.99,,,-99.99,VWS V14.01,2013-07-10 00:38:00,
2013-07-09 20:39:00,78.1,70.7,30.01,NW,321,0.0,0.0,78,-99.99,,,-99.99,VWS V14.01,2013-07-10 00:39:00,
2013-07-09 20:40:00,78.0,70.6,30.01,NW,321,0.0,0.0,78,-99.99,,,-99.99,VWS V14.01,2013-07-10 00:40:00,
2013-07-09 20:41:00,78.0,70.7,30.02,NW,321,0.0,0.0,78,-99.99,,,-99.99,VWS V14.01,2013-07-10 00:41:00,
2013-07-09 20:42:00,77.9,70.6,30.02,NW,321,0.0,0.0,78,-99.99,,,-99.99,VWS V14.01,2013-07-10 00:42:00,
2013-07-09 20:43:00,77.8,70.7,30.02,NW,321,0.0,0.0,79,-99.99,,,-99.99,VWS V14.01,2013-07-10 00:43:00,
2013-07-09 20:44:00,78.0,70.9,30.02,NW,321,0.0,0.0,79,-99.99,,,-99.99,VWS V14.01,2013-07-10 00:44:00,
2013-07-09 20:45:00,77.9,70.9,30.02,NW,321,0.0,0.0,79,-99.99,,,-99.99,VWS V14.01,2013-07-10 00:45:00,
2013-07-09 20:46:00,77.9,70.9,30.02,NW,321,0.0,0.0,79,-99.99,,,-99.99,VWS V14.01,2013-07-10 00:46:00,
2013-07-09 20:47:00,77.9,71.0,30.02,NW,321,0.0,0.0,79,-99.99,,,-99.99,VWS V14.01,2013-07-10 00:47:00,
2013-07-09 20:48:00,77.8,71.1,30.02,NW,321,0.0,0.0,80,-99.99,,,-99.99,VWS V14.01,2013-07-10 00:48:00,
2013-07-09 20:49:00,77.8,71.1,30.02,NW,321,0.0,0.0,80,-99.99,,,-99.99,VWS V14.01,2013-07-10 00:49:00,
2013-07-09 20:50:00,77.7,71.1,30.02,NW,321,0.0,0.0,80,-99.99,,,-99.99,VWS V14.01,2013-07-10 00:50:00,
2013-07-09 20:51:00,77.7,71.3,30.02,NW,321,0.0,0.0,81,-99.99,,,-99.99,VWS V14.01,2013-07-10 00:51:00,
2013-07-09 20:52:00,77.7,71.5,30.02,NW,321,0.0,0.0,81,-99.99,,,-99.99,VWS V14.01,2013-07-10 00:52:00,
2013-07-09 20:53:00,77.5,71.5,30.02,NW,321,0.0,0.0,82,-99.99,,,-99.99,VWS V14.01,2013-07-10 00:53:00,
2013-07-09 20:54:00,77.5,71.6,30.02,NW,321,0.0,0.0,82,-99.99,,,-99.99,VWS V14.01,2013-07-10 00:54:00,
2013-07-09 20:55:00,77.4,71.6,30.02,NW,321,0.0,0.0,82,-99.99,,,-99.99,VWS V14.01,2013-07-10 00:55:00,
2013-07-09 20:56:00,77.3,71.6,30.02,NW,321,0.0,0.0,83,-99.99,,,-99.99,VWS V14.01,2013-07-10 00:56:00,
2013-07-09 20:57:00,77.2,71.6,30.02,NW,321,0.0,0.0,83,-99.99,,,-99.99,VWS V14.01,2013-07-10 00:57:00,
2013-07-09 20:58:00,77.2,71.8,30.02,NW,321,0.0,0.0,83,-99.99,,,-99.99,VWS V14.01,2013-07-10 00:58:00,
2013-07-09 20:59:00,77.2,71.8,30.03,NW,321,0.0,0.0,84,-99.99,,,-99.99,VWS V14.01,2013-07-10 00:59:00,
2013-07-09 21:00:00,76.9,71.6,30.02,NW,321,0.0,0.0,84,-99.99,,,-99.99,VWS V14.01,2013-07-10 01:00:00,
2013-07-09 21:01:00,76.9,71.6,30.02,NW,321,0.0,0.0,84,-99.99,,,-99.99,VWS V14.01,2013-07-10 01:01:00,
2013-07-09 21:02:00,76.9,71.7,30.03,NW,321,0.0,0.0,84,-99.99,,,-99.99,VWS V14.01,2013-07-10 01:02:00,
2013-07-09 21:03:00,76.8,71.7,30.03,NW,321,0.0,0.0,84,-99.99,,,-99.99,VWS V14.01,2013-07-10 01:03:00,
2013-07-09 21:04:00,76.7,71.7,30.03,NW,321,0.0,0.0,84,-99.99,,,-99.99,VWS V14.01,2013-07-10 01:04:00,
2013-07-09 21:05:00,76.8,71.8,30.03,NW,321,0.0,0.0,85,-99.99,,,-99.99,VWS V14.01,2013-07-10 01:05:00,
2013-07-09 21:06:00,76.8,71.9,30.03,NW,321,0.0,0.0,85,-99.99,,,-99.99,VWS V14.01,2013-07-10 01:06:00,
2013-07-09 21:07:00,76.7,71.8,30.03,NW,321,0.0,0.0,85,-99.99,,,-99.99,VWS V14.01,2013-07-10 01:07:00,
2013-07-09 21:08:00,76.6,71.8,30.03,NW,321,0.0,0.0,85,-99.99,,,-99.99,VWS V14.01,2013-07-10 01:08:00,
2013-07-09 21:09:00,76.5,71.7,30.03,NW,321,0.0,0.0,85,-99.99,,,-99.99,VWS V14.01,2013-07-10 01:09:00,
2013-07-09 21:10:00,76.4,71.7,30.03,NW,321,0.0,0.0,85,-99.99,,,-99.99,VWS V14.01,2013-07-10 01:10:00,
2013-07-09 21:11:00,76.4,71.8,30.03,NW,321,0.0,0.0,86,-99.99,,,-99.99,VWS V14.01,2013-07-10 01:11:00,
2013-07-09 21:12:00,76.4,71.9,30.04,NW,321,0.0,0.0,86,-99.99,,,-99.99,VWS V14.01,2013-07-10 01:12:00,
2013-07-09 21:13:00,76.3,71.9,30.04,NW,321,0.0,0.0,86,-99.99,,,-99.99,VWS V14.01,2013-07-10 01:13:00,
2013-07-09 21:14:00,76.2,71.8,30.04,NW,321,0.0,0.0,86,-99.99,,,-99.99,VWS V14.01,2013-07-10 01:14:00,
2013-07-09 21:15:00,76.2,71.9,30.04,NW,321,0.0,0.0,87,-99.99,,,-99.99,VWS V14.01,2013-07-10 01:15:00,
2013-07-09 21:16:00,76.0,71.8,30.04,NW,321,0.0,0.0,87,-99.99,,,-99.99,VWS V14.01,2013-07-10 01:16:00,
2013-07-09 21:17:00,76.0,71.8,30.04,NW,321,0.0,0.0,87,-99.99,,,-99.99,VWS V14.01,2013-07-10 01:17:00,
2013-07-09 21:18:00,75.8,71.7,30.04,NW,321,0.0,0.0,87,-99.99,,,-99.99,VWS V14.01,2013-07-10 01:18:00,
2013-07-09 21:19:00,75.8,71.8,30.04,NW,321,0.0,0.0,87,-99.99,,,-99.99,VWS V14.01,2013-07-10 01:19:00,
2013-07-09 21:20:00,75.8,71.8,30.04,NW,321,0.0,0.0,87,-99.99,,,-99.99,VWS V14.01,2013-07-10 01:20:00,
2013-07-09 21:21:00,75.7,71.8,30.04,NW,321,0.0,0.0,88,-99.99,,,-99.99,VWS V14.01,2013-07-10 01:21:00,
2013-07-09 21:22:00,75.7,71.8,30.04,NW,321,0.0,0.0,88,-99.99,,,-99.99,VWS V14.01,2013-07-10 01:22:00,
2013-07-09 21:23:00,75.7,71.9,30.04,NW,321,0.0,0.0,88,-99.99,,,-99.99,VWS V14.01,2013-07-10 01:23:00,
2013-07-09 21:24:00,75.6,71.8,30.04,NW,321,0.0,0.0,88,-99.99,,,-99.99,VWS V14.01,2013-07-10 01:24:00,
2013-07-09 21:25:00,75.6,71.8,30.04,NW,321,0.0,0.0,88,-99.99,,,-99.99,VWS V14.01,2013-07-10 01:25:00,
2013-07-09 21:26:00,75.5,71.8,30.04,NW,321,0.0,0.0,88,-99.99,,,-99.99,VWS V14.01,2013-07-10 01:26:00,
2013-07-09 21:27:00,75.5,71.9,30.04,NW,321,0.0,0.0,88,-99.99,,,-99.99,VWS V14.01,2013-07-10 01:27:00,
2013-07-09 21:28:00,75.5,71.9,30.04,NW,321,0.0,0.0,89,-99.99,,,-99.99,VWS V14.01,2013-07-10 01:28:00,
2013-07-09 21:29:00,75.4,71.9,30.04,NW,321,0.0,0.0,89,-99.99,,,-99.99,VWS V14.01,2013-07-10 01:29:00,
2013-07-09 21:30:00,75.3,71.8,30.04,NW,321,0.0,0.0,89,-99.99,,,-99.99,VWS V14.01,2013-07-10 01:30:00,
2013-07-09 21:31:00,75.4,71.9,30.04,NW,321,0.0,0.0,89,-99.99,,,-99.99,VWS V14.01,2013-07-10 01:31:00,
2013-07-09 21:32:00,75.3,71.9,30.04,NW,321,0.0,0.0,89,-99.99,,,-99.99,VWS V14.01,2013-07-10 01:32:00,
2013-07-09 21:33:00,75.3,71.9,30.04,NW,321,0.0,0.0,89,-99.99,,,-99.99,VWS V14.01,2013-07-10 01:33:00,
2013-07-09 21:34:00,75.2,71.9,30.04,NW,321,0.0,0.0,89,-99.99,,,-99.99,VWS V14.01,2013-07-10 01:34:00,
2013-07-09 21:35:00,75.2,71.9,30.04,NW,321,0.0,0.0,90,-99.99,,,-99.99,VWS V14.01,2013-07-10 01:35:00,
2013-07-09 21:36:00,75.2,72.0,30.04,NW,321,0.0,0.0,90,-99.99,,,-99.99,VWS V14.01,2013-07-10 01:36:00,
2013-07-09 21:37:00,75.2,72.0,30.04,NW,321,0.0,0.0,90,-99.99,,,-99.99,VWS V14.01,2013-07-10 01:37:00,
2013-07-09 21:38:00,74.9,71.8,30.04,NW,321,0.0,0.0,90,-99.99,,,-99.99,VWS V14.01,2013-07-10 01:38:00,
2013-07-09 21:39:00,74.9,71.8,30.04,NW,321,0.0,0.0,90,-99.99,,,-99.99,VWS V14.01,2013-07-10 01:39:00,
2013-07-09 21:40:00,74.9,71.8,30.04,NW,321,0.0,0.0,90,-99.99,,,-99.99,VWS V14.01,2013-07-10 01:40:00,
2013-07-09 21:41:00,74.9,71.9,30.04,NW,321,0.0,0.0,90,-99.99,,,-99.99,VWS V14.01,2013-07-10 01:41:00,
2013-07-09 21:42:00,74.9,71.9,30.04,NW,321,0.0,0.0,90,-99.99,,,-99.99,VWS V14.01,2013-07-10 01:42:00,
2013-07-09 21:43:00,74.9,72.0,30.04,NW,321,0.0,0.0,91,-99.99,,,-99.99,VWS V14.01,2013-07-10 01:43:00,
2013-07-09 21:44:00,74.9,72.0,30.04,NW,321,0.0,0.0,91,-99.99,,,-99.99,VWS V14.01,2013-07-10 01:44:00,
2013-07-09 21:45:00,74.9,72.0,30.04,NW,321,0.0,0.0,91,-99.99,,,-99.99,VWS V14.01,2013-07-10 01:45:00,
2013-07-09 21:46:00,74.8,72.0,30.04,NW,321,0.0,0.0,91,-99.99,,,-99.99,VWS V14.01,2013-07-10 01:46:00,
2013-07-09 21:47:00,74.8,72.0,30.04,NW,321,0.0,0.0,91,-99.99,,,-99.99,VWS V14.01,2013-07-10 01:47:00,
2013-07-09 21:48:00,74.7,71.9,30.04,NW,321,0.0,0.0,91,-99.99,,,-99.99,VWS V14.01,2013-07-10 01:48:00,
2013-07-09 21:49:00,74.7,72.0,30.04,NW,321,0.0,0.0,91,-99.99,,,-99.99,VWS V14.01,2013-07-10 01:49:00,
2013-07-09 21:50:00,74.6,71.9,30.04,NW,321,0.0,0.0,91,-99.99,,,-99.99,VWS V14.01,2013-07-10 01:50:00,
2013-07-09 21:51:00,74.7,72.1,30.04,NW,321,0.0,0.0,92,-99.99,,,-99.99,VWS V14.01,2013-07-10 01:51:00,
2013-07-09 21:52:00,74.6,72.0,30.04,NW,321,0.0,0.0,92,-99.99,,,-99.99,VWS V14.01,2013-07-10 01:52:00,
2013-07-09 21:53:00,74.6,72.0,30.04,NW,321,0.0,0.0,92,-99.99,,,-99.99,VWS V14.01,2013-07-10 01:53:00,
2013-07-09 21:54:00,74.6,72.0,30.04,NW,321,0.0,0.0,92,-99.99,,,-99.99,VWS V14.01,2013-07-10 01:54:00,
2013-07-09 21:55:00,74.5,72.0,30.05,NW,321,0.0,0.0,92,-99.99,,,-99.99,VWS V14.01,2013-07-10 01:55:00,
2013-07-09 21:56:00,74.5,72.0,30.05,NW,321,0.0,0.0,92,-99.99,,,-99.99,VWS V14.01,2013-07-10 01:56:00,
2013-07-09 21:57:00,74.5,72.1,30.05,NW,321,0.0,0.0,92,-99.99,,,-99.99,VWS V14.01,2013-07-10 01:57:00,
2013-07-09 21:58:00,74.5,72.1,30.04,NW,321,0.0,0.0,92,-99.99,,,-99.99,VWS V14.01,2013-07-10 01:58:00,
2013-07-09 21:59:00,74.4,72.0,30.04,NW,321,0.0,0.0,92,-99.99,,,-99.99,VWS V14.01,2013-07-10 01:59:00,
2013-07-09 22:00:00,74.4,72.1,30.04,NW,321,0.0,0.0,92,-99.99,,,-99.99,VWS V14.01,2013-07-10 02:00:00,
2013-07-09 22:01:00,74.4,72.1,30.05,NW,321,0.0,0.0,92,-99.99,,,-99.99,VWS V14.01,2013-07-10 02:01:00,
2013-07-09 22:02:00,74.3,72.0,30.04,NW,321,0.0,0.0,93,-99.99,,,-99.99,VWS V14.01,2013-07-10 02:02:00,
2013-07-09 22:03:00,74.2,72.0,30.05,NW,321,0.0,0.0,93,-99.99,,,-99.99,VWS V14.01,2013-07-10 02:03:00,